Latitude: N 50° 09' 49" Longitude: W 05° 11' 53" Elevation: 168m ASL

There are 12 visitors online

Adverts

<- Previous Day | Today | Next Day ->

All Data for 08 March 2018

Time
A - D
Temp
A - D
Dew Point
A - D
Humidity
A - D
Pressure
A - D
Wind
A - D
Wind Dir Gust
A - D
Rain Rate
A - D
Rain Total
23:58 5.1 3.8 91 1002.2 3.1 SE 3.1 0.0 0.6
23:57 5.1 3.6 90 1002.2 2.2 SE 2.2 0.0 0.6
23:56 5.1 3.6 90 1002.1 2.2 SE 2.2 0.0 0.6
23:55 5.1 3.6 90 1002.1 1.6 SE 1.6 0.0 0.6
23:54 5.1 3.6 90 1002.0 1.6 SE 1.6 0.0 0.6
23:52 5.1 3.8 91 1001.9 0.7 SE 1.6 0.0 0.6
23:51 5.1 3.6 90 1002.2 1.6 SE 1.6 0.0 0.6
23:49 5.1 3.6 90 1002.1 1.6 SE 1.6 0.0 0.6
23:48 5.1 3.6 90 1002.1 0.0 SE 0.7 0.0 0.6
23:46 5.1 3.6 90 1001.9 0.0 SE 1.6 0.0 0.6
23:45 5.2 3.7 90 1002.1 0.0 SE 1.6 0.0 0.6
23:43 5.2 3.7 90 1002.0 0.0 SE 1.6 0.0 0.6
23:42 5.2 3.7 90 1002.2 0.7 SE 1.6 0.0 0.6
23:40 5.2 3.7 90 1002.0 0.7 SE 1.6 0.0 0.6
23:37 5.2 3.7 90 1002.0 1.6 SE 1.6 0.0 0.6
23:35 5.3 3.8 90 1002.2 0.0 SE 0.7 0.0 0.6
23:33 5.2 3.7 90 1002.1 0.0 SE 0.7 0.0 0.6
23:32 5.2 3.7 90 1002.0 0.0 SE 0.7 0.0 0.6
23:30 5.3 3.8 90 1002.0 0.0 SE 0.7 0.0 0.6
23:29 5.3 3.8 90 1002.0 0.0 SE 0.7 0.0 0.6
23:27 5.3 3.8 90 1002.1 0.0 SE 0.7 0.0 0.6
23:26 5.3 3.8 90 1002.2 0.0 SE 0.7 0.0 0.6
23:25 5.3 3.8 90 1002.2 0.0 SE 0.7 0.0 0.6
23:23 5.3 3.8 90 1002.1 0.0 SE 0.7 0.0 0.6
23:22 5.2 3.7 90 1002.1 0.7 SE 0.7 0.0 0.6
23:19 5.2 3.7 90 1002.2 0.7 SE 0.7 0.0 0.6
23:18 5.3 3.8 90 1002.0 0.7 SE 0.7 0.0 0.6
23:16 5.3 3.8 90 1002.0 0.7 SE 0.7 0.0 0.6
23:15 5.3 3.8 90 1002.1 0.7 SE 0.7 0.0 0.6
23:14 5.3 3.8 90 1002.0 0.0 SE 0.7 0.0 0.6
23:12 5.3 3.8 90 1002.1 0.0 SE 0.7 0.0 0.6
23:11 5.3 3.8 90 1002.1 0.0 SE 0.7 0.0 0.6
23:09 5.3 3.8 90 1002.1 0.0 SE 0.7 0.0 0.6
23:06 5.2 3.7 90 1002.2 0.7 SE 0.7 0.0 0.6
23:04 5.2 3.7 90 1002.1 0.7 SE 1.6 0.0 0.6
23:03 5.2 3.7 90 1002.2 0.7 SE 1.6 0.0 0.6
23:02 5.2 3.7 90 1002.2 0.7 SE 1.6 0.0 0.6
23:00 5.2 3.7 90 1002.1 0.7 SE 1.6 0.0 0.6
22:58 5.2 3.7 90 1002.3 0.7 SE 1.6 0.0 0.6
22:57 5.2 3.7 90 1002.2 0.7 SE 1.6 0.0 0.6
22:56 5.2 3.7 90 1002.2 0.7 SE 1.6 0.0 0.6
22:55 5.2 3.7 90 1002.2 1.6 SE 1.6 0.0 0.6
22:53 5.2 3.7 90 1002.2 1.6 SE 1.6 0.0 0.6
22:51 5.2 3.7 90 1002.1 0.7 SE 1.6 0.0 0.6
22:48 5.2 3.7 90 1002.2 0.7 SE 1.6 0.0 0.6
22:47 5.3 3.8 90 1002.2 1.6 SE 1.6 0.0 0.6
22:45 5.3 3.8 90 1002.1 0.7 SE 0.7 0.0 0.6
22:44 5.3 3.8 90 1002.1 0.7 SE 0.7 0.0 0.6
22:42 5.3 3.8 90 1002.3 0.7 SE 0.7 0.0 0.6
22:41 5.3 3.8 90 1002.3 0.7 SE 0.7 0.0 0.6
22:39 5.3 3.8 90 1002.2 0.7 SE 0.7 0.0 0.6
22:38 5.3 3.8 90 1002.1 0.7 SE 0.7 0.0 0.6
22:37 5.3 3.8 90 1002.2 0.0 SE 0.7 0.0 0.6
22:35 5.3 3.8 90 1002.2 0.7 SE 0.7 0.0 0.6
22:33 5.3 3.8 90 1002.1 0.0 SE 0.7 0.0 0.6
22:32 5.3 3.8 90 1002.2 0.0 SE 0.7 0.0 0.6
22:31 5.3 3.8 90 1002.0 0.0 SE 0.7 0.0 0.6
22:30 5.3 3.8 90 1002.3 0.7 SE 1.6 0.0 0.6
22:29 5.3 3.8 90 1002.0 0.0 SE 1.6 0.0 0.6
22:28 5.3 3.6 89 1002.0 0.7 SE 1.6 0.0 0.6
22:27 5.3 3.8 90 1002.0 0.0 SE 1.6 0.0 0.6
22:25 5.3 3.6 89 1002.1 0.7 SE 1.6 0.0 0.6
22:23 5.3 3.6 89 1002.1 0.7 SE 1.6 0.0 0.6
22:22 5.3 3.6 89 1002.0 0.0 SE 1.6 0.0 0.6
22:20 5.2 3.5 89 1002.1 1.6 SE 1.6 0.0 0.6
22:18 5.3 3.6 89 1002.1 0.7 SE 0.7 0.0 0.6
22:17 5.2 3.5 89 1002.1 0.7 SE 0.7 0.0 0.6
22:15 5.2 3.5 89 1002.0 0.0 SE 0.7 0.0 0.6
22:14 5.3 3.6 89 1002.2 0.7 SE 0.7 0.0 0.6
22:12 5.2 3.5 89 1002.1 0.7 SE 0.7 0.0 0.6
22:10 5.2 3.5 89 1002.1 0.0 SE 0.7 0.0 0.6
22:09 5.3 3.6 89 1002.0 0.7 SE 0.7 0.0 0.6
22:07 5.3 3.6 89 1002.1 0.7 SE 0.7 0.0 0.6
22:06 5.2 3.5 89 1002.2 0.0 SE 0.7 0.0 0.6
22:05 5.2 3.5 89 1002.0 0.0 SE 0.7 0.0 0.6
22:04 5.2 3.5 89 1002.1 0.0 SE 0.7 0.0 0.6
22:02 5.2 3.5 89 1002.1 0.0 SE 0.7 0.0 0.6
22:01 5.2 3.5 89 1002.1 0.0 SE 0.7 0.0 0.6
21:59 5.2 3.5 89 1002.0 0.0 SE 0.7 0.0 0.6
21:58 5.2 3.5 89 1002.0 0.0 SE 0.7 0.0 0.6
21:57 5.2 3.5 89 1002.0 0.0 SE 0.7 0.0 0.6
21:56 5.2 3.5 89 1002.0 0.0 SE 0.7 0.0 0.6
21:55 5.2 3.5 89 1002.1 0.7 SE 0.7 0.0 0.6
21:54 5.2 3.5 89 1002.1 0.7 SE 0.7 0.0 0.6
21:53 5.2 3.5 89 1002.2 0.7 SE 0.7 0.0 0.6
21:52 5.2 3.5 89 1001.9 0.7 SE 0.7 0.0 0.6
21:51 5.2 3.4 88 1002.2 0.7 SE 0.7 0.0 0.6
21:49 5.2 3.5 89 1002.2 0.0 SE 0.7 0.0 0.6
21:48 5.2 3.5 89 1002.1 0.0 SE 0.7 0.0 0.6
21:47 5.2 3.5 89 1002.1 0.0 SE 0.7 0.0 0.6
21:46 5.2 3.4 88 1002.1 0.7 SE 0.7 0.0 0.6
21:45 5.2 3.4 88 1002.1 0.7 SE 0.7 0.0 0.6
21:44 5.2 3.5 89 1002.1 0.7 SE 0.7 0.0 0.6
21:43 5.2 3.4 88 1002.1 0.0 SE 0.7 0.0 0.6
21:42 5.2 3.4 88 1002.2 0.7 SE 1.6 0.0 0.6
21:41 5.2 3.4 88 1002.2 0.0 SE 1.6 0.0 0.6
21:39 5.2 3.4 88 1002.2 0.7 SE 1.6 0.0 0.6
21:38 5.2 3.4 88 1002.1 0.7 SE 1.6 0.0 0.6
21:37 5.2 3.4 88 1002.2 0.7 SE 1.6 0.0 0.6
21:36 5.2 3.4 88 1002.2 0.7 SE 3.1 0.0 0.6
21:34 5.2 3.4 88 1002.2 0.7 SE 3.1 0.0 0.6
21:33 5.2 3.4 88 1002.3 0.7 SE 3.8 0.0 0.6
21:32 5.2 3.4 88 1002.2 1.6 SE 3.8 0.0 0.6
21:31 5.2 3.4 88 1002.3 0.7 SE 3.8 0.0 0.6
21:30 5.2 3.4 88 1002.2 1.6 SE 3.8 0.0 0.6
21:28 5.2 3.4 88 1002.2 0.7 SE 3.8 0.0 0.6
21:27 5.1 3.3 88 1002.2 1.6 SE 3.8 0.0 0.6
21:26 5.1 3.3 88 1002.0 2.2 SE 3.8 0.0 0.6
21:25 5.1 3.3 88 1002.3 3.1 SE 3.8 0.0 0.6
21:24 5.1 3.3 88 1002.1 3.8 SE 3.8 0.0 0.6
21:22 5.1 3.3 88 1002.3 3.8 SE 3.8 0.0 0.6
21:21 5.2 3.4 88 1002.1 3.1 SE 3.1 0.0 0.6
21:20 5.1 3.3 88 1002.3 2.2 SE 2.2 0.0 0.6
21:19 5.1 3.3 88 1002.4 2.2 SE 2.2 0.0 0.6
21:17 5.2 3.2 87 1002.2 2.2 SE 2.2 0.0 0.6
21:16 5.2 3.4 88 1002.2 2.2 SE 2.2 0.0 0.6
21:14 5.1 3.3 88 1002.2 1.6 SE 2.2 0.0 0.6
21:13 5.1 3.3 88 1002.1 2.2 SE 2.2 0.0 0.6
21:12 5.1 3.3 88 1002.1 1.6 SE 2.2 0.0 0.6
21:11 5.1 3.3 88 1002.2 0.7 SE 2.2 0.0 0.6
21:10 5.2 3.2 87 1002.1 2.2 SE 2.2 0.0 0.6
21:08 5.1 3.1 87 1002.1 1.6 SE 1.6 0.0 0.6
21:07 5.1 3.1 87 1002.0 1.6 SE 1.6 0.0 0.6
21:06 5.1 3.1 87 1002.2 1.6 SE 1.6 0.0 0.6
21:05 5.1 3.1 87 1002.2 1.6 SE 1.6 0.0 0.6
21:04 5.1 3.1 87 1002.1 0.7 SE 0.7 0.0 0.6
21:03 5.1 3.1 87 1002.0 0.7 SE 1.6 0.0 0.6
21:02 5.1 3.1 87 1002.0 0.7 SE 1.6 0.0 0.6
21:00 5.1 3.1 87 1002.1 0.7 SE 1.6 0.0 0.6
20:59 5.1 3.1 87 1002.0 0.7 SE 1.6 0.0 0.6
20:57 5.1 3.1 87 1001.9 0.7 SE 1.6 0.0 0.6
20:55 5.1 3.1 87 1002.1 0.7 SE 1.6 0.0 0.6
20:54 5.1 3.1 87 1002.0 0.0 SE 1.6 0.0 0.6
20:53 5.0 3.0 87 1002.1 1.6 SE 1.6 0.0 0.6
20:52 5.0 3.0 87 1002.2 1.6 SE 1.6 0.0 0.6
20:50 5.0 3.0 87 1002.0 0.7 SE 1.6 0.0 0.6
20:49 5.0 3.0 87 1002.1 0.7 SE 2.2 0.0 0.6
20:48 5.0 3.0 87 1001.8 0.7 SE 2.2 0.0 0.6
20:47 5.0 3.0 87 1001.9 1.6 SE 2.2 0.0 0.6
20:45 5.0 3.0 87 1002.1 1.6 SE 2.2 0.0 0.6
20:44 5.0 3.0 87 1002.0 1.6 SE 2.2 0.0 0.6
20:43 5.0 3.0 87 1002.1 1.6 SE 3.1 0.0 0.6
20:42 4.9 2.9 87 1002.1 1.6 SE 3.1 0.0 0.6
20:40 4.9 2.9 87 1001.9 2.2 SE 3.1 0.0 0.6
20:39 4.9 2.9 87 1002.0 1.6 SE 3.1 0.0 0.6
20:38 4.9 2.8 86 1002.0 2.2 SE 3.1 0.0 0.6
20:36 4.9 2.9 87 1002.0 1.6 SE 3.1 0.0 0.6
20:35 4.9 2.8 86 1001.9 2.2 SE 3.1 0.0 0.6
20:33 4.9 2.8 86 1001.8 0.7 SE 2.2 0.0 0.6
20:31 4.9 2.8 86 1001.7 2.2 SE 2.2 0.0 0.6
20:30 4.9 2.8 86 1001.7 1.6 SE 1.6 0.0 0.6
20:28 4.9 2.8 86 1001.6 0.7 SE 1.6 0.0 0.6
20:26 4.9 2.8 86 1001.7 0.7 SE 2.2 0.0 0.6
20:23 4.8 2.7 86 1001.9 0.7 SE 2.2 0.0 0.6
20:21 4.9 2.8 86 1001.7 1.6 SE 2.2 0.0 0.6
20:18 4.8 2.7 86 1001.7 2.2 SE 2.2 0.0 0.6
20:15 4.8 2.7 86 1001.7 1.6 SE 2.2 0.0 0.6
20:13 4.8 2.7 86 1001.8 1.6 SE 2.2 0.0 0.6
20:10 4.8 2.5 85 1001.8 0.7 SE 1.6 0.0 0.6
20:08 4.8 2.7 86 1001.7 0.7 SE 1.6 0.0 0.6
20:05 4.8 2.5 85 1001.7 1.6 SE 2.2 0.0 0.6
20:03 4.8 2.5 85 1001.7 1.6 SE 2.2 0.0 0.6
20:01 4.8 2.5 85 1001.7 1.6 SE 3.1 0.0 0.6
19:59 4.8 2.5 85 1001.7 1.6 SE 3.1 0.0 0.6
19:56 4.8 2.5 85 1001.7 2.2 SE 3.1 0.0 0.6
19:54 4.8 2.5 85 1001.7 2.2 SE 3.1 0.0 0.6
19:52 4.8 2.5 85 1001.8 3.1 SE 3.1 0.0 0.6
19:50 4.9 2.6 85 1001.8 2.2 SE 3.1 0.0 0.6
19:48 4.9 2.4 84 1001.7 3.1 SE 3.1 0.0 0.6
19:46 4.9 2.4 84 1001.6 2.2 S 2.2 0.0 0.6
19:45 4.9 2.4 84 1001.7 2.2 S 2.2 0.0 0.6
19:43 4.9 2.4 84 1001.6 2.2 S 2.2 0.0 0.6
19:40 4.9 2.4 84 1001.6 2.2 S 2.2 0.0 0.6
19:38 5.0 2.5 84 1001.5 1.6 S 2.2 0.0 0.6
19:37 5.0 2.5 84 1001.6 1.6 S 2.2 0.0 0.6
19:36 5.0 2.5 84 1001.6 1.6 S 2.2 0.0 0.6
19:35 5.0 2.5 84 1001.5 2.2 S 2.2 0.0 0.6
19:34 5.0 2.5 84 1001.4 2.2 S 2.2 0.0 0.6
19:33 5.0 2.5 84 1001.4 1.6 S 2.2 0.0 0.6
19:32 5.1 2.6 84 1001.6 2.2 S 2.2 0.0 0.6
19:31 5.1 2.6 84 1001.4 2.2 S 2.2 0.0 0.6
19:30 5.1 2.6 84 1001.4 2.2 S 2.2 0.0 0.6
19:28 5.1 2.6 84 1001.4 2.2 S 2.2 0.0 0.6
19:27 5.1 2.5 83 1001.4 2.2 S 2.2 0.0 0.6
19:26 5.1 2.5 83 1001.4 2.2 S 2.2 0.0 0.6
19:25 5.1 2.6 84 1001.5 2.2 S 2.2 0.0 0.6
19:24 5.1 2.5 83 1001.5 2.2 S 2.2 0.0 0.6
19:23 5.1 2.5 83 1001.4 2.2 S 2.2 0.0 0.6
19:22 5.2 2.6 83 1001.5 2.2 S 2.2 0.0 0.6
19:21 5.2 2.6 83 1001.6 1.6 S 2.2 0.0 0.6
19:20 5.2 2.6 83 1001.5 1.6 S 2.2 0.0 0.6
19:18 5.2 2.6 83 1001.4 1.6 S 2.2 0.0 0.6
19:17 5.2 2.6 83 1001.4 2.2 S 2.2 0.0 0.6
19:16 5.2 2.6 83 1001.4 1.6 S 2.2 0.0 0.6
19:15 5.2 2.6 83 1001.3 1.6 S 2.2 0.0 0.6
19:14 5.2 2.6 83 1001.3 1.6 S 2.2 0.0 0.6
19:13 5.2 2.6 83 1001.4 1.6 S 2.2 0.0 0.6
19:12 5.2 2.6 83 1001.4 2.2 S 2.2 0.0 0.6
19:11 5.2 2.6 83 1001.4 0.7 S 2.2 0.0 0.6
19:10 5.2 2.4 82 1001.4 1.6 S 2.2 0.0 0.6
19:08 5.3 2.5 82 1001.2 1.6 S 3.8 0.0 0.6
19:07 5.3 2.5 82 1001.2 2.2 S 3.8 0.0 0.6
19:06 5.3 2.5 82 1001.2 1.6 SW 3.8 0.0 0.6
19:05 5.3 2.5 82 1001.1 1.6 SW 3.8 0.0 0.6
19:04 5.4 2.6 82 1001.2 1.6 S 3.8 0.0 0.6
19:03 5.4 2.6 82 1001.3 1.6 S 3.8 0.0 0.6
19:02 5.4 2.6 82 1001.1 1.6 S 3.8 0.0 0.6
19:01 5.4 2.6 82 1001.2 1.6 S 3.8 0.0 0.6
19:00 5.4 2.6 82 1001.2 1.6 S 3.8 0.0 0.6
18:58 5.4 2.6 82 1001.2 3.8 S 3.8 0.0 0.6
18:57 5.5 2.5 81 1001.2 2.2 S 2.2 0.0 0.6
18:56 5.5 2.5 81 1001.2 2.2 S 3.1 0.0 0.6
18:55 5.5 2.5 81 1001.2 2.2 S 3.1 0.0 0.6
18:54 5.5 2.5 81 1001.4 2.2 S 3.1 0.0 0.6
18:53 5.6 2.6 81 1001.3 2.2 S 3.1 0.0 0.6
18:52 5.6 2.6 81 1001.4 2.2 S 3.1 0.0 0.6
18:51 5.6 2.6 81 1001.4 2.2 SW 3.1 0.0 0.6
18:50 5.7 2.7 81 1001.3 2.2 SW 3.1 0.0 0.6
18:49 5.7 2.7 81 1001.2 2.2 SW 3.1 0.0 0.6
18:48 5.7 2.7 81 1001.2 2.2 SW 3.1 0.0 0.6
18:47 5.7 2.7 81 1001.2 3.1 S 3.1 0.0 0.6
18:46 5.7 2.7 81 1001.2 2.2 SW 3.1 0.0 0.6
18:45 5.8 2.8 81 1001.3 2.2 S 3.1 0.0 0.6
18:44 5.8 2.8 81 1001.3 1.6 S 3.1 0.0 0.6
18:43 5.8 2.8 81 1001.1 1.6 S 3.1 0.0 0.6
18:41 5.9 2.9 81 1001.1 2.2 S 3.1 0.0 0.6
18:39 5.9 2.7 80 1001.2 2.2 S 3.1 0.0 0.6
18:38 5.9 2.7 80 1001.1 3.1 S 3.1 0.0 0.6
18:37 5.9 2.7 80 1001.4 3.1 S 3.1 0.0 0.6
18:36 5.9 2.7 80 1001.2 3.1 S 3.1 0.0 0.6
18:35 6.0 2.8 80 1001.2 2.2 S 2.2 0.0 0.6
18:34 6.0 2.8 80 1001.1 2.2 S 2.2 0.0 0.6
18:33 6.0 2.8 80 1000.9 2.2 S 2.2 0.0 0.6
18:32 6.1 2.9 80 1001.1 1.6 S 2.2 0.0 0.6
18:31 6.0 2.8 80 1001.1 1.6 S 2.2 0.0 0.6
18:30 6.1 2.7 79 1001.0 1.6 S 2.2 0.0 0.6
18:29 6.1 2.9 80 1001.0 1.6 SW 2.2 0.0 0.6
18:28 6.1 2.7 79 1000.9 1.6 SW 2.2 0.0 0.6
18:26 6.2 2.8 79 1001.1 1.6 S 2.2 0.0 0.6
18:24 6.2 2.8 79 1001.0 1.6 S 3.1 0.0 0.6
18:22 6.3 2.9 79 1001.0 1.6 S 3.8 0.0 0.6
18:19 6.3 2.7 78 1001.0 2.2 S 5.4 0.0 0.6
18:17 6.4 2.8 78 1000.8 2.2 S 5.4 0.0 0.6
18:15 6.5 2.9 78 1000.9 1.6 S 5.4 0.0 0.6
18:13 6.5 2.9 78 1000.9 3.1 S 5.4 0.0 0.6
18:11 6.6 3.0 78 1001.0 3.8 SW 5.4 0.0 0.6
18:10 6.7 3.0 77 1000.8 5.4 SW 5.4 0.0 0.6
18:08 6.7 3.0 77 1000.8 3.8 S 6.9 0.0 0.6
18:06 6.8 3.1 77 1000.8 5.4 SW 7.6 0.0 0.6
18:04 7.1 3.2 76 1001.0 4.5 S 9.2 0.0 0.6
18:03 7.1 3.2 76 1000.9 4.5 S 9.2 0.0 0.6
18:01 7.1 3.2 76 1000.8 4.5 S 9.2 0.0 0.6
17:59 7.1 3.2 76 1000.7 4.5 S 9.2 0.0 0.6
17:57 7.1 3.2 76 1000.7 7.6 SW 9.2 0.0 0.6
17:56 7.2 3.3 76 1000.8 6.9 SW 9.8 0.0 0.6
17:54 7.3 3.4 76 1000.8 4.5 SW 9.8 0.0 0.6
17:52 7.3 3.4 76 1000.7 6.0 SW 9.8 0.0 0.6
17:50 7.4 3.3 75 1000.7 6.0 S 9.8 0.0 0.6
17:49 7.4 3.3 75 1000.6 6.9 S 9.8 0.0 0.6
17:48 7.5 3.4 75 1000.8 6.9 S 9.8 0.0 0.6
17:47 7.6 3.5 75 1000.7 8.3 SW 9.8 0.0 0.6
17:46 7.6 3.5 75 1000.7 9.2 S 9.2 0.0 0.6
17:44 7.7 3.6 75 1000.6 6.0 W 8.3 0.0 0.6
17:42 7.8 3.6 75 1000.7 8.3 SW 8.3 0.0 0.6
17:41 7.9 3.7 75 1000.7 6.0 W 8.3 0.0 0.6
17:39 8.0 3.8 75 1000.8 7.6 S 8.3 0.0 0.6
17:37 8.1 3.9 75 1000.5 6.0 SW 9.2 0.0 0.6
17:35 8.2 3.8 74 1000.4 6.9 SW 11.4 0.0 0.6
17:32 8.3 3.9 74 1000.4 6.0 SW 13.0 0.0 0.6
17:30 8.4 4.0 74 1000.6 8.3 NW 13.0 0.0 0.6
17:28 8.5 4.1 74 1000.5 9.2 S 13.0 0.0 0.6
17:27 8.5 4.1 74 1000.7 9.2 SW 13.0 0.0 0.6
17:26 8.6 4.2 74 1000.5 9.8 S 13.0 0.0 0.6
17:24 8.6 4.2 74 1000.6 13.0 S 13.0 0.0 0.6
17:22 8.7 4.5 75 1000.5 9.2 W 13.0 0.0 0.6
17:21 8.7 4.5 75 1000.6 10.7 SW 13.0 0.0 0.6
17:20 8.7 4.5 75 1000.4 9.8 SW 13.0 0.0 0.6
17:19 8.7 4.5 75 1000.4 9.8 SW 13.0 0.0 0.6
17:17 8.7 4.5 75 1000.4 8.3 SW 13.0 0.0 0.6
17:16 8.6 4.4 75 1000.4 13.0 S 13.0 0.0 0.6
17:15 8.6 4.4 75 1000.4 12.1 S 12.1 0.0 0.6
17:14 8.6 4.4 75 1000.4 8.3 SW 11.4 0.0 0.6
17:13 8.5 4.3 75 1000.3 5.4 SW 11.4 0.0 0.6
17:12 8.5 4.1 74 1000.5 7.6 SW 11.4 0.0 0.6
17:11 8.5 4.1 74 1000.6 9.8 SW 11.4 0.0 0.6
17:10 8.5 4.1 74 1000.3 10.7 S 11.4 0.0 0.6
17:09 8.6 4.2 74 1000.6 11.4 SE 11.4 0.0 0.6
17:08 8.6 4.0 73 1000.6 10.7 S 11.4 0.0 0.6
17:07 8.6 4.2 74 1000.5 9.8 SW 11.4 0.0 0.6
17:06 8.6 4.0 73 1000.5 11.4 S 11.4 0.0 0.6
17:05 8.6 4.0 73 1000.5 9.2 W 12.1 0.0 0.6
17:04 8.6 4.0 73 1000.4 9.8 SW 12.1 0.0 0.6
17:03 8.6 4.0 73 1000.6 9.8 SW 12.1 0.0 0.6
17:02 8.6 4.0 73 1000.3 9.8 W 12.1 0.0 0.6
17:01 8.7 3.9 72 1000.4 8.3 SW 12.1 0.0 0.6
17:00 8.7 3.9 72 1000.4 8.3 SW 12.1 0.0 0.6
16:59 8.7 3.9 72 1000.6 8.3 SW 12.1 0.0 0.6
16:58 8.8 4.0 72 1000.6 7.6 W 12.1 0.0 0.6
16:57 8.8 4.0 72 1000.6 9.2 W 12.1 0.0 0.6
16:56 8.8 3.8 71 1000.5 10.7 W 12.1 0.0 0.6
16:54 8.9 3.9 71 1000.5 8.3 SW 11.4 0.0 0.6
16:53 8.9 3.9 71 1000.5 9.2 S 14.5 0.0 0.6
16:52 9.0 4.0 71 1000.4 8.3 SW 14.5 0.0 0.6
16:51 9.0 4.0 71 1000.5 8.3 SW 14.5 0.0 0.6
16:50 9.1 3.9 70 1000.4 8.3 SW 14.5 0.0 0.6
16:49 9.2 4.0 70 1000.2 11.4 SW 14.5 0.0 0.6
16:48 9.2 4.0 70 1000.5 9.8 S 14.5 0.0 0.6
16:47 9.3 4.1 70 1000.4 9.2 SW 14.5 0.0 0.6
16:46 9.3 4.1 70 1000.4 9.8 NNW 14.5 0.0 0.6
16:45 9.3 4.1 70 1000.4 7.6 NW 14.5 0.0 0.6
16:44 9.4 4.2 70 1000.5 14.5 SW 14.5 0.0 0.6
16:43 9.4 4.2 70 1000.4 9.8 SW 15.9 0.0 0.6
16:42 9.5 4.3 70 1000.4 12.1 NW 15.9 0.0 0.6
16:41 9.5 4.3 70 1000.4 11.4 SW 15.9 0.0 0.6
16:40 9.6 4.4 70 1000.4 13.0 S 15.9 0.0 0.6
16:39 9.6 4.4 70 1000.4 11.4 SW 15.9 0.0 0.6
16:38 9.6 4.4 70 1000.3 13.0 SW 15.9 0.0 0.6
16:37 9.6 4.4 70 1000.3 8.3 W 15.9 0.0 0.6
16:36 9.6 4.2 69 1000.3 9.2 SW 15.9 0.0 0.6
16:35 9.6 4.2 69 1000.1 11.4 SW 15.9 0.0 0.6
16:34 9.6 4.2 69 1000.2 12.1 SW 15.9 0.0 0.6
16:32 9.6 4.2 69 1000.1 11.4 SW 14.5 0.0 0.6
16:31 9.6 4.4 70 1000.3 11.4 SW 14.5 0.0 0.6
16:30 9.6 4.4 70 1000.3 9.8 SW 14.5 0.0 0.6
16:29 9.7 4.5 70 1000.2 6.9 S 15.2 0.0 0.6
16:28 9.7 4.5 70 1000.2 11.4 SW 15.2 0.0 0.6
16:27 9.7 4.5 70 1000.5 9.2 SW 15.2 0.0 0.6
16:26 9.7 4.5 70 1000.2 11.4 SW 15.2 0.0 0.6
16:25 9.7 4.5 70 1000.4 9.2 W 15.2 0.0 0.6
16:23 9.8 4.4 69 1000.3 13.0 S 15.2 0.0 0.6
16:21 9.9 4.3 68 1000.0 13.0 SW 15.2 0.0 0.6
16:20 10.0 4.4 68 1000.1 15.2 S 15.2 0.0 0.6
16:19 10.0 4.6 69 1000.2 12.1 SW 15.2 0.0 0.6
16:17 10.0 4.6 69 1000.2 12.1 W 15.2 0.0 0.6
16:16 10.0 4.6 69 1000.3 12.1 SW 15.2 0.0 0.6
16:14 10.1 4.9 70 1000.2 10.7 SW 15.2 0.0 0.6
16:13 10.1 5.1 71 1000.1 9.8 SW 15.2 0.0 0.6
16:12 10.1 4.9 70 1000.1 15.2 SW 15.2 0.0 0.6
16:11 10.1 5.1 71 1000.3 12.1 SW 15.9 0.0 0.6
16:10 10.1 5.1 71 1000.2 10.7 SW 15.9 0.0 0.6
16:09 10.1 5.1 71 1000.3 11.4 SW 15.9 0.0 0.6
16:07 10.0 5.0 71 1000.1 11.4 SW 15.9 0.0 0.6
16:06 10.0 5.2 72 1000.2 13.0 SW 15.9 0.0 0.6
16:05 9.9 4.9 71 1000.2 12.1 SW 15.9 0.0 0.6
16:04 9.9 4.9 71 1000.1 14.5 W 15.9 0.0 0.6
16:03 9.9 4.9 71 1000.2 12.1 SW 15.9 0.0 0.6
16:02 9.8 4.8 71 1000.1 13.0 S 15.9 0.0 0.6
16:01 9.7 4.5 70 1000.2 15.9 S 15.9 0.0 0.6
16:00 9.7 4.5 70 1000.2 15.9 S 15.9 0.0 0.6
15:59 9.7 4.5 70 1000.2 8.3 WNW 15.9 0.0 0.6
15:58 9.7 4.5 70 1000.2 10.7 SW 15.9 0.0 0.6
15:57 9.7 4.5 70 1000.2 13.0 S 15.9 0.0 0.6
15:55 9.7 4.3 69 1000.1 9.8 SW 15.9 0.0 0.6
15:54 9.8 4.4 69 1000.1 14.5 SW 15.9 0.0 0.6
15:53 9.8 4.4 69 1000.3 9.8 SW 16.8 0.0 0.6
15:52 9.8 4.2 68 1000.1 10.7 S 16.8 0.0 0.6
15:51 9.9 4.3 68 1000.2 15.2 NW 16.8 0.0 0.6
15:50 10.0 4.4 68 1000.2 15.9 SW 17.4 0.0 0.6
15:49 10.1 4.5 68 1000.2 14.5 SW 17.4 0.0 0.6
15:48 10.1 4.3 67 1000.3 13.0 S 17.4 0.0 0.6
15:47 10.2 4.3 67 1000.1 14.5 SW 18.3 0.0 0.6
15:46 10.2 4.6 68 1000.1 13.6 S 18.3 0.0 0.6
15:45 10.2 4.3 67 1000.3 13.6 S 18.3 0.0 0.6
15:44 10.2 4.6 68 1000.2 16.8 SW 18.3 0.0 0.6
15:42 10.1 4.5 68 1000.3 14.5 S 20.6 0.0 0.6
15:41 10.1 4.3 67 1000.2 14.5 S 20.6 0.0 0.6
15:40 10.1 4.0 66 1000.3 17.4 S 20.6 0.0 0.6
15:39 10.1 4.3 67 1000.3 13.6 SW 20.6 0.0 0.6
15:38 10.1 4.3 67 1000.4 13.6 S 20.6 0.0 0.6
15:37 10.2 4.3 67 1000.2 18.3 W 20.6 0.0 0.6
15:36 10.2 4.3 67 1000.2 13.6 SW 20.6 0.0 0.6
15:35 10.2 4.3 67 1000.3 18.3 W 20.6 0.0 0.6
15:33 10.2 4.3 67 1000.2 20.6 SE 20.6 0.0 0.6
15:32 10.2 4.6 68 1000.3 13.0 SW 20.6 0.0 0.6
15:31 10.1 4.5 68 1000.0 15.2 SW 20.6 0.0 0.6
15:30 10.1 4.5 68 1000.2 12.1 S 20.6 0.0 0.6
15:29 10.1 4.5 68 1000.1 13.0 SW 20.6 0.0 0.6
15:28 10.2 4.6 68 1000.2 11.4 SW 20.6 0.0 0.6
15:27 10.2 4.6 68 1000.2 12.1 SW 20.6 0.0 0.6
15:25 10.2 4.6 68 1000.1 15.2 SW 20.6 0.0 0.6
15:24 10.3 4.7 68 1000.3 13.6 SW 18.3 0.0 0.6
15:23 10.2 4.6 68 1000.1 12.1 S 18.3 0.0 0.6
15:22 10.2 4.6 68 1000.1 10.7 SW 18.3 0.0 0.6
15:21 10.1 4.3 67 1000.0 11.4 SW 18.3 0.0 0.6
15:20 10.1 4.0 66 1000.1 9.8 SW 18.3 0.0 0.6
15:19 10.2 4.1 66 1000.0 15.2 SW 18.3 0.0 0.6
15:18 10.2 4.1 66 1000.0 13.0 SW 18.3 0.0 0.6
15:16 10.3 4.7 68 1000.0 13.0 W 16.8 0.0 0.6
15:15 10.3 4.7 68 1000.0 14.5 S 16.8 0.0 0.6
15:14 10.3 4.7 68 1000.0 13.0 S 16.8 0.0 0.6
15:13 10.4 5.0 69 1000.1 14.5 SW 16.8 0.0 0.6
15:12 10.4 5.0 69 1000.1 14.5 WNW 16.8 0.0 0.6
15:11 10.5 5.1 69 1000.2 15.2 S 16.8 0.0 0.6
15:10 10.5 5.1 69 1000.1 16.8 SW 16.8 0.0 0.6
15:09 10.5 5.1 69 1000.1 15.2 NW 16.8 0.0 0.6
15:08 10.6 5.4 70 1000.2 16.8 SW 16.8 0.0 0.6
15:07 10.6 5.6 71 999.9 11.4 SW 15.9 0.0 0.6
15:06 10.7 5.5 70 1000.1 13.6 NW 15.9 0.0 0.6
15:05 10.7 5.5 70 1000.0 11.4 NW 15.9 0.0 0.6
15:03 10.8 5.6 70 1000.2 15.2 SW 19.0 0.0 0.6
15:02 10.8 5.6 70 1000.1 13.0 SW 19.0 0.0 0.6
15:01 10.8 5.6 70 1000.0 13.6 SW 19.0 0.0 0.6
15:00 10.9 5.6 70 1000.2 15.2 S 19.0 0.0 0.6
14:59 10.9 5.6 70 1000.1 15.2 S 19.0 0.0 0.6
14:58 10.8 5.6 70 1000.0 14.5 S 19.0 0.0 0.6
14:57 10.8 5.3 69 1000.0 15.9 NW 19.7 0.0 0.6
14:56 10.8 5.3 69 1000.0 15.9 S 19.7 0.0 0.6
14:55 10.8 5.3 69 999.9 13.0 SW 19.7 0.0 0.6
14:54 10.8 5.1 68 999.9 19.0 S 19.7 0.0 0.6
14:53 10.8 5.3 69 1000.1 18.3 SW 19.7 0.0 0.6
14:52 10.8 5.3 69 1000.1 18.3 SW 19.7 0.0 0.6
14:51 10.8 5.3 69 999.9 13.6 SW 19.7 0.0 0.6
14:50 10.8 5.3 69 999.9 15.2 SW 19.7 0.0 0.6
14:49 10.8 5.6 70 999.8 17.4 SW 19.7 0.0 0.6
14:48 10.8 5.6 70 1000.1 13.0 W 18.3 0.0 0.6
14:46 10.9 5.9 71 1000.0 13.6 SW 18.3 0.0 0.6
14:45 10.9 5.9 71 1000.0 13.6 SW 18.3 0.0 0.6
14:44 10.9 5.6 70 1000.0 9.2 S 18.3 0.0 0.6
14:43 10.9 5.9 71 1000.0 18.3 S 18.3 0.0 0.6
14:42 10.9 6.1 72 999.9 12.1 W 13.6 0.0 0.6
14:41 10.8 6.2 73 1000.0 13.6 S 13.6 0.0 0.6
14:40 10.7 6.1 73 1000.0 13.0 W 13.6 0.0 0.6
14:39 10.5 5.7 72 999.8 8.3 SW 15.9 0.0 0.6
14:38 10.5 5.7 72 1000.0 11.4 SW 15.9 0.0 0.6
14:37 10.4 5.6 72 999.9 12.1 SW 15.9 0.0 0.6
14:36 10.3 5.3 71 999.9 10.7 SW 16.8 0.0 0.6
14:35 10.2 5.0 70 999.8 11.4 SW 16.8 0.0 0.6
14:34 10.2 5.0 70 999.9 12.1 W 16.8 0.0 0.6
14:32 10.4 5.0 69 999.8 13.6 W 16.8 0.0 0.6
14:31 10.4 5.0 69 1000.0 13.6 NW 16.8 0.0 0.6
14:30 10.5 5.1 69 1000.0 13.6 SW 16.8 0.0 0.6
14:29 10.6 5.2 69 999.8 12.1 SW 16.8 0.0 0.6
14:28 10.7 5.2 69 999.8 13.0 S 16.8 0.0 0.6
14:27 10.7 5.2 69 999.8 14.5 NW 16.8 0.0 0.6
14:26 10.8 5.3 69 999.8 16.8 WNW 16.8 0.0 0.6
14:25 10.8 5.3 69 999.8 13.0 W 16.8 0.0 0.6
14:24 10.8 5.3 69 999.6 15.2 W 18.3 0.0 0.6
14:23 10.8 5.3 69 999.8 10.7 W 18.3 0.0 0.6
14:22 10.8 5.3 69 999.7 13.6 SW 18.3 0.0 0.6
14:21 11.0 5.7 70 999.7 13.0 SW 18.3 0.0 0.6
14:20 11.0 5.9 71 999.7 12.1 W 18.3 0.0 0.6
14:19 11.0 5.9 71 999.7 15.2 SW 18.3 0.0 0.6
14:18 11.0 5.9 71 999.7 15.2 SW 18.3 0.0 0.6
14:17 11.0 5.9 71 999.8 16.8 SW 18.3 0.0 0.6
14:15 11.0 5.9 71 999.7 15.2 S 18.3 0.0 0.6
14:14 10.9 6.1 72 999.7 15.2 S 18.3 0.0 0.6
14:12 10.8 5.8 71 999.7 12.1 SW 18.3 0.0 0.6
14:11 10.8 5.6 70 999.8 15.2 S 19.0 0.0 0.6
14:09 10.9 5.6 70 999.7 18.3 S 19.0 0.0 0.6
14:08 11.0 5.7 70 999.7 13.0 SW 19.0 0.0 0.6
14:07 11.0 5.7 70 999.9 13.6 SW 19.0 0.0 0.6
14:06 10.9 5.6 70 999.8 13.0 SW 19.0 0.0 0.6
14:05 10.9 5.6 70 999.8 14.5 W 19.0 0.0 0.6
14:04 10.9 5.6 70 999.7 16.8 SW 19.0 0.0 0.6
14:03 10.9 5.6 70 999.6 17.4 W 19.0 0.0 0.6
14:02 10.9 5.6 70 999.7 14.5 N 19.0 0.0 0.6
14:00 11.0 5.9 71 999.7 19.0 SW 19.0 0.0 0.6
13:59 11.0 5.9 71 999.8 19.0 SW 19.0 0.0 0.6
13:58 10.9 5.9 71 999.7 15.2 SW 19.0 0.0 0.6
13:57 10.9 5.9 71 999.8 10.7 SW 19.0 0.0 0.6
13:56 10.9 5.9 71 999.8 13.0 SW 19.0 0.0 0.6
13:55 10.9 5.9 71 999.8 15.2 SW 19.0 0.0 0.6
13:54 10.9 5.6 70 999.8 17.4 SW 19.0 0.0 0.6
13:53 10.8 6.0 72 999.8 15.2 S 19.0 0.0 0.6
13:52 10.8 6.0 72 999.7 15.2 SW 19.0 0.0 0.6
13:51 10.7 5.9 72 999.6 10.7 SW 19.0 0.0 0.6
13:50 10.6 5.8 72 999.6 16.8 SW 19.0 0.0 0.6
13:49 10.5 5.7 72 999.7 14.5 SW 19.0 0.0 0.6
13:48 10.4 5.4 71 999.7 14.5 S 19.0 0.0 0.6
13:47 10.4 5.6 72 999.6 19.0 SW 19.0 0.0 0.6
13:46 10.4 5.6 72 999.6 18.3 NE 19.0 0.0 0.6
13:45 10.3 5.7 73 999.6 19.0 NE 19.0 0.0 0.6
13:44 10.3 5.7 73 999.7 14.5 SW 17.4 0.0 0.6
13:43 10.1 5.5 73 999.7 14.5 SW 17.4 0.0 0.6
13:42 10.1 5.5 73 999.7 15.9 SW 17.4 0.0 0.6
13:41 10.0 5.4 73 999.7 15.2 S 17.4 0.0 0.6
13:40 10.0 5.4 73 999.7 14.5 SW 17.4 0.0 0.6
13:38 9.8 5.2 73 999.8 13.6 SW 16.8 0.0 0.6
13:37 9.8 5.0 72 999.7 13.6 S 16.8 0.0 0.6
13:36 9.9 5.1 72 999.7 15.9 SW 19.0 0.0 0.6
13:35 9.9 5.3 73 999.8 16.8 SW 19.0 0.0 0.6
13:34 9.9 5.3 73 999.8 15.2 SW 19.0 0.0 0.6
13:33 9.9 5.3 73 999.7 16.8 SW 19.0 0.0 0.6
13:32 9.9 5.1 72 999.8 10.7 SW 19.0 0.0 0.6
13:31 9.9 5.1 72 999.8 13.0 S 19.0 0.0 0.6
13:30 10.0 5.2 72 999.8 13.6 SW 19.0 0.0 0.6
13:29 10.1 5.1 71 999.7 15.2 SW 19.0 0.0 0.6
13:28 10.2 5.4 72 999.6 13.0 W 19.0 0.0 0.6
13:27 10.3 5.5 72 999.7 19.0 W 19.0 0.0 0.6
13:26 10.4 5.6 72 999.6 15.2 SW 17.4 0.0 0.6
13:25 10.4 5.8 73 999.9 17.4 SW 17.4 0.0 0.6
13:24 10.5 6.1 74 999.7 15.9 SW 17.4 0.0 0.6
13:23 10.4 6.2 75 999.7 17.4 SW 17.4 0.0 0.6
13:22 10.3 5.9 74 999.6 14.5 SW 19.7 0.0 0.6
13:21 10.2 5.8 74 999.7 12.1 SW 19.7 0.0 0.6
13:20 10.1 5.7 74 999.6 10.7 W 19.7 0.0 0.6
13:19 10.0 5.4 73 999.7 12.1 W 19.7 0.0 0.6
13:18 10.0 5.2 72 999.7 10.7 SW 19.7 0.0 0.6
13:17 10.0 5.2 72 999.6 10.7 SW 19.7 0.0 0.6
13:16 10.0 5.2 72 999.7 11.4 W 19.7 0.0 0.6
13:14 10.1 5.3 72 999.7 13.0 SW 19.7 0.0 0.6
13:13 10.2 5.2 71 999.6 16.8 N 19.7 0.0 0.6
13:12 10.2 5.2 71 999.7 19.7 SW 19.7 0.0 0.6
13:11 10.3 5.5 72 999.7 15.9 SW 15.9 0.0 0.6
13:10 10.4 5.6 72 999.7 14.5 WNW 17.4 0.0 0.6
13:09 10.6 5.8 72 999.5 13.6 SW 17.4 0.0 0.6
13:08 10.6 5.8 72 999.7 15.9 SW 17.4 0.0 0.6
13:07 10.7 5.9 72 999.7 15.9 S 17.4 0.0 0.6
13:06 10.7 6.1 73 999.8 13.6 NW 17.4 0.0 0.6
13:05 10.8 6.2 73 999.7 13.6 SW 17.4 0.0 0.6
13:04 10.7 6.1 73 999.6 15.9 W 17.4 0.0 0.6
13:03 10.7 6.1 73 999.6 15.9 SW 17.4 0.0 0.6
13:02 10.7 6.1 73 999.5 15.2 SW 17.4 0.0 0.6
13:01 10.7 6.3 74 999.6 17.4 SW 17.4 0.0 0.6
13:00 10.7 6.3 74 999.6 17.4 SW 17.4 0.0 0.6
12:59 10.6 6.4 75 999.7 14.5 SW 17.4 0.0 0.6
12:58 10.6 6.2 74 999.6 17.4 SW 17.4 0.0 0.6
12:56 10.5 6.1 74 999.5 16.8 SW 16.8 0.0 0.6
12:55 10.4 6.2 75 999.6 16.8 S 16.8 0.0 0.6
12:54 10.3 6.3 76 999.5 9.8 SW 15.9 0.0 0.6
12:53 10.1 5.9 75 999.7 12.1 SW 14.5 0.0 0.6
12:52 10.1 5.9 75 999.6 12.1 SW 14.5 0.0 0.6
12:51 10.0 5.8 75 999.6 13.6 S 14.5 0.0 0.6
12:50 10.0 6.0 76 999.6 12.1 SW 14.5 0.0 0.6
12:49 9.8 5.8 76 999.7 13.0 SW 14.5 0.0 0.6
12:48 9.6 5.4 75 999.7 11.4 SW 15.2 0.0 0.6
12:47 9.6 5.4 75 999.5 11.4 SW 15.9 0.0 0.6
12:46 9.5 5.3 75 999.4 13.6 SW 15.9 0.0 0.6
12:45 9.5 5.5 76 999.6 14.5 SW 15.9 0.0 0.6
12:44 9.4 5.4 76 999.5 13.6 SW 15.9 0.0 0.6
12:43 9.3 5.3 76 999.4 13.6 W 15.9 0.0 0.6
12:42 9.2 5.4 77 999.5 14.5 W 15.9 0.0 0.6
12:41 9.0 5.2 77 999.5 13.0 WNW 15.9 0.0 0.6
12:39 8.8 4.8 76 999.4 10.7 SW 15.9 0.0 0.6
12:38 8.7 4.7 76 999.5 13.0 SW 15.9 0.0 0.6
12:37 8.7 4.7 76 999.4 15.2 W 15.9 0.0 0.6
12:36 8.7 4.9 77 999.5 14.5 SW 17.4 0.0 0.6
12:35 8.7 4.9 77 999.5 11.4 N 17.4 0.0 0.6
12:34 8.7 4.9 77 999.4 11.4 NW 17.4 0.0 0.6
12:33 8.7 4.9 77 999.4 12.1 NW 17.4 0.0 0.6
12:32 8.7 4.9 77 999.4 12.1 SW 17.4 0.0 0.6
12:31 8.7 4.9 77 999.5 12.1 SW 17.4 0.0 0.6
12:30 8.8 5.0 77 999.4 11.4 SW 19.0 0.0 0.6
12:28 8.9 5.3 78 999.4 11.4 W 19.0 0.0 0.6
12:27 9.0 5.4 78 999.4 17.4 SW 19.0 0.0 0.6
12:25 9.0 5.4 78 999.4 15.9 SW 19.0 0.0 0.6
12:24 9.2 5.6 78 999.2 14.5 SW 19.0 0.0 0.6
12:23 9.3 5.8 79 999.2 13.6 W 19.0 0.0 0.6
12:22 9.3 5.8 79 999.2 9.2 SW 19.0 0.0 0.6
12:21 9.4 5.9 79 999.2 13.0 W 19.0 0.0 0.6
12:20 9.5 6.2 80 999.4 19.0 SW 19.0 0.0 0.6
12:19 9.5 6.2 80 999.4 13.6 SW 18.3 0.0 0.6
12:18 9.4 6.1 80 999.2 12.1 SW 18.3 0.0 0.6
12:17 9.4 6.1 80 999.3 13.0 SW 18.3 0.0 0.6
12:16 9.2 6.1 81 999.2 13.6 SW 18.3 0.0 0.6
12:14 9.1 6.0 81 999.2 13.0 SW 18.3 0.0 0.6
12:13 9.0 6.1 82 999.3 17.4 SW 18.3 0.0 0.6
12:11 8.9 6.2 83 999.3 13.6 SW 18.3 0.0 0.6
12:10 8.7 6.0 83 999.2 12.1 SW 16.8 0.0 0.6
12:08 8.5 6.0 84 999.3 13.0 SW 16.8 0.0 0.6
12:07 8.4 5.9 84 999.3 11.4 SW 16.8 0.0 0.6
12:06 8.3 5.8 84 999.3 14.5 SW 16.8 0.0 0.6
12:05 8.2 5.7 84 999.5 9.2 S 16.8 0.0 0.6
12:04 8.1 5.6 84 999.3 13.0 SW 16.8 0.0 0.6
12:03 8.0 5.5 84 999.3 15.2 SW 16.8 0.0 0.6
12:02 7.9 5.4 84 999.3 16.8 SW 16.8 0.0 0.6
12:01 7.9 5.2 83 999.3 10.7 SW 16.8 0.0 0.6
12:00 7.9 5.2 83 999.4 10.7 SW 16.8 0.0 0.6
11:59 7.9 5.2 83 999.2 9.8 SW 16.8 0.0 0.6
11:58 8.0 5.3 83 999.3 15.2 SW 16.8 0.0 0.6
11:57 8.0 5.3 83 999.3 15.9 S 16.8 0.0 0.6
11:56 8.0 5.3 83 999.3 15.9 NNW 16.8 0.0 0.6
11:55 8.0 5.3 83 999.2 8.3 W 16.8 0.0 0.6
11:54 8.0 5.3 83 999.3 14.5 SW 16.8 0.0 0.6
11:53 8.0 5.3 83 999.2 10.7 SW 16.8 0.0 0.6
11:52 8.0 5.3 83 999.0 11.4 W 16.8 0.0 0.6
11:51 8.0 5.3 83 999.2 13.6 W 16.8 0.0 0.6
11:50 8.0 5.3 83 999.3 15.2 NW 16.8 0.0 0.6
11:49 8.0 5.3 83 999.2 15.2 SW 16.8 0.0 0.6
11:46 8.1 5.4 83 999.2 14.5 SW 16.8 0.0 0.6
11:45 8.2 5.5 83 999.1 16.8 SW 16.8 0.0 0.6
11:44 8.2 5.5 83 999.0 13.6 SW 14.5 0.0 0.6
11:43 8.3 5.6 83 998.8 11.4 SW 14.5 0.0 0.6
11:42 8.3 5.6 83 999.0 14.5 SW 16.8 0.0 0.6
11:41 8.3 5.8 84 999.0 12.1 SW 17.4 0.0 0.6
11:40 8.5 6.0 84 999.1 12.1 W 17.4 0.0 0.6
11:39 8.5 6.0 84 999.0 13.0 W 17.4 0.0 0.6
11:38 8.6 6.1 84 999.3 13.6 SW 17.4 0.0 0.6
11:37 8.6 6.1 84 999.2 10.7 SW 17.4 0.0 0.6
11:36 8.7 6.1 84 999.1 12.1 SW 17.4 0.0 0.6
11:35 8.7 6.3 85 999.2 13.6 S 17.4 0.0 0.6
11:34 8.8 6.4 85 999.1 12.1 SW 17.4 0.0 0.6
11:33 8.8 6.4 85 999.1 12.1 W 17.4 0.0 0.6
11:32 8.8 6.4 85 999.1 17.4 SW 17.4 0.0 0.6
11:31 8.8 6.4 85 999.2 11.4 S 16.8 0.0 0.6
11:30 8.7 6.5 86 999.1 15.2 S 16.8 0.0 0.6
11:29 8.6 6.4 86 999.0 13.0 SW 16.8 0.0 0.6
11:28 8.5 6.1 85 998.9 13.6 SW 16.8 0.0 0.6
11:27 8.5 6.1 85 999.0 12.1 S 16.8 0.0 0.6
11:26 8.5 6.1 85 998.9 10.7 SW 16.8 0.0 0.6
11:25 8.5 6.1 85 999.2 10.7 SW 16.8 0.0 0.6
11:24 8.5 6.3 86 999.1 13.6 N 18.3 0.0 0.6
11:23 8.5 6.3 86 998.9 13.0 SW 18.3 0.0 0.6
11:22 8.5 6.3 86 998.7 15.2 SW 18.3 0.0 0.6
11:20 8.4 6.2 86 998.8 14.5 S 18.3 0.0 0.6
11:19 8.3 6.3 87 998.8 10.7 S 18.3 0.0 0.6
11:18 8.3 6.1 86 998.8 12.1 S 18.3 0.0 0.6
11:17 8.2 6.0 86 998.7 9.8 SW 18.3 0.0 0.6
11:16 8.2 6.2 87 998.7 9.2 SW 18.3 0.0 0.6
11:14 8.2 6.2 87 998.8 18.3 SW 18.3 0.0 0.6
11:13 8.1 6.1 87 998.8 13.0 N 13.0 0.0 0.6
11:11 8.0 5.8 86 998.7 12.1 SW 14.5 0.0 0.6
11:10 7.9 5.7 86 998.7 8.3 SW 14.5 0.0 0.6
11:09 7.9 5.5 85 998.9 9.2 SW 14.5 0.0 0.6
11:08 7.9 5.5 85 998.8 11.4 SW 14.5 0.0 0.6
11:07 7.9 5.7 86 998.8 9.8 W 14.5 0.0 0.6
11:06 8.0 5.8 86 998.9 13.0 W 15.2 0.0 0.6
11:05 8.0 5.8 86 998.8 12.1 W 15.2 0.0 0.6
11:04 8.0 5.8 86 998.7 9.2 SW 17.4 0.0 0.6
11:03 8.0 5.8 86 998.6 13.0 SW 17.4 0.0 0.6
11:02 8.0 5.8 86 998.6 12.1 SW 17.4 0.0 0.6
11:01 7.9 5.7 86 998.8 9.8 W 17.4 0.0 0.6
11:00 7.9 5.7 86 998.8 9.8 W 17.4 0.0 0.6
10:59 7.9 5.7 86 998.6 12.1 SW 17.4 0.0 0.6
10:58 7.9 5.7 86 998.7 13.6 SW 17.4 0.0 0.6
10:57 7.9 5.7 86 998.7 15.2 SW 17.4 0.0 0.6
10:56 7.9 5.7 86 998.8 13.0 SW 17.4 0.0 0.6
10:54 7.9 5.9 87 998.7 17.4 SW 17.4 0.0 0.6
10:53 7.7 5.7 87 998.6 15.2 NW 17.4 0.0 0.6
10:52 7.7 5.7 87 998.6 15.2 NW 17.4 0.0 0.6
10:51 7.6 5.6 87 998.6 13.6 W 17.4 0.0 0.6
10:50 7.6 5.6 87 998.6 10.7 SW 17.4 0.0 0.6
10:49 7.5 5.5 87 998.6 9.8 W 17.4 0.0 0.6
10:48 7.5 5.5 87 998.6 11.4 SW 17.4 0.0 0.6
10:47 7.5 5.5 87 998.5 11.4 SW 17.4 0.0 0.6
10:46 7.5 5.5 87 998.5 11.4 SW 17.4 0.0 0.6
10:45 7.5 5.5 87 998.4 10.7 SW 17.4 0.0 0.6
10:43 7.5 5.5 87 998.4 10.7 W 17.4 0.0 0.6
10:42 7.5 5.5 87 998.5 17.4 W 17.4 0.0 0.6
10:41 7.5 5.5 87 998.6 11.4 W 16.8 0.0 0.6
10:40 7.5 5.5 87 998.5 13.6 SW 16.8 0.0 0.6
10:39 7.5 5.5 87 998.4 13.0 NW 16.8 0.0 0.6
10:38 7.5 5.5 87 998.4 12.1 SW 16.8 0.0 0.6
10:37 7.5 5.6 88 998.4 13.0 SW 16.8 0.0 0.6
10:36 7.5 5.5 87 998.4 14.5 W 16.8 0.0 0.6
10:35 7.5 5.6 88 998.5 13.6 NW 16.8 0.0 0.6
10:34 7.5 5.6 88 998.4 15.2 SW 16.8 0.0 0.6
10:33 7.5 5.6 88 998.5 8.3 S 16.8 0.0 0.6
10:32 7.5 5.6 88 998.4 11.4 SW 16.8 0.0 0.6
10:31 7.5 5.6 88 998.4 16.8 SW 16.8 0.0 0.6
10:30 7.4 5.5 88 998.3 16.8 W 16.8 0.0 0.6
10:28 7.3 5.4 88 998.4 14.5 SW 15.9 0.0 0.6
10:27 7.3 5.4 88 998.2 9.8 SW 15.9 0.0 0.6
10:26 7.3 5.4 88 998.2 9.2 W 16.8 0.0 0.6
10:25 7.3 5.4 88 998.2 15.9 SW 18.3 0.0 0.6
10:24 7.3 5.4 88 998.3 13.0 SW 18.3 0.0 0.6
10:23 7.2 5.3 88 998.2 9.8 SW 18.3 0.0 0.6
10:22 7.2 5.3 88 998.3 14.5 SW 18.3 0.0 0.6
10:21 7.2 5.3 88 998.3 10.7 SW 18.3 0.0 0.6
10:20 7.2 5.3 88 998.2 11.4 SW 18.3 0.0 0.6
10:18 7.2 5.3 88 998.4 13.6 SW 18.3 0.0 0.6
10:17 7.2 5.3 88 998.2 16.8 NNW 18.3 0.0 0.6
10:16 7.2 5.5 89 998.1 18.3 SW 18.3 0.0 0.6
10:15 7.3 5.6 89 998.2 15.9 SW 16.8 0.0 0.6
10:14 7.2 5.7 90 998.0 16.8 W 17.4 0.0 0.6
10:12 7.2 5.7 90 998.1 16.8 SW 18.3 0.0 0.6
10:11 7.2 5.7 90 998.2 13.6 W 18.3 0.0 0.6
10:09 7.1 5.7 91 998.1 15.9 SW 18.3 0.0 0.6
10:08 7.1 5.7 91 998.0 11.4 SW 18.3 0.0 0.6
10:07 7.1 5.7 91 998.0 13.0 SW 18.3 0.0 0.6
10:06 7.0 5.6 91 998.2 13.6 SW 18.3 0.0 0.6
10:05 7.0 5.6 91 998.0 17.4 SW 18.3 0.0 0.6
10:04 7.0 5.8 92 998.1 14.5 SW 18.3 0.0 0.6
10:03 7.0 5.8 92 997.9 14.5 SW 16.8 0.0 0.6
10:02 7.0 5.8 92 998.0 12.1 W 16.8 0.0 0.6
10:01 7.0 5.9 93 998.1 10.7 SW 16.8 0.0 0.6
09:59 7.0 5.9 93 998.0 10.7 SW 16.8 0.0 0.6
09:58 7.0 5.9 93 998.1 15.2 SW 17.4 0.0 0.6
09:57 7.0 6.1 94 998.0 16.8 SW 17.4 0.0 0.6
09:56 6.9 6.0 94 997.8 16.8 SW 17.4 0.0 0.6
09:55 6.9 6.0 94 997.7 11.4 SW 17.4 0.0 0.6
09:54 6.9 6.0 94 997.8 12.1 SW 17.4 0.0 0.6
09:53 6.8 5.9 94 997.9 11.4 SW 17.4 0.0 0.6
09:52 6.8 5.9 94 997.7 14.5 W 17.4 0.0 0.6
09:51 6.8 5.9 94 997.7 15.2 NNW 18.3 0.0 0.6
09:50 6.8 6.1 95 997.8 16.8 SW 18.3 0.0 0.6
09:49 6.8 6.1 95 997.7 13.6 SW 18.3 0.0 0.6
09:48 6.8 6.1 95 997.6 17.4 W 18.3 0.0 0.6
09:47 6.7 6.0 95 997.8 15.2 N 18.3 0.0 0.6
09:46 6.7 6.0 95 997.9 13.0 W 18.3 0.0 0.6
09:44 6.7 6.1 96 997.8 9.8 SW 18.3 0.0 0.6
09:43 6.6 6.0 96 997.6 16.8 SW 18.3 0.0 0.6
09:42 6.7 6.1 96 997.8 18.3 SW 18.3 0.0 0.6
09:41 6.7 6.1 96 997.7 15.2 SW 16.8 0.0 0.6
09:39 6.7 6.1 96 997.7 12.1 S 16.8 0.0 0.6
09:38 6.7 6.1 96 997.7 15.2 SW 16.8 0.0 0.6
09:37 6.7 6.1 96 997.7 9.8 SW 16.8 0.0 0.6
09:36 6.7 6.3 97 997.7 9.8 SW 16.8 0.0 0.6
09:35 6.7 6.3 97 997.8 13.6 SW 16.8 0.0 0.6
09:34 6.7 6.3 97 997.7 15.9 SW 16.8 0.0 0.6
09:33 6.6 6.2 97 997.7 13.0 SW 15.9 0.0 0.6
09:32 6.6 6.2 97 997.6 10.7 SW 15.9 0.0 0.6
09:31 6.6 6.2 97 997.7 13.0 SW 15.9 0.0 0.6
09:30 6.6 6.2 97 997.6 15.2 W 15.9 0.0 0.6
09:29 6.6 6.2 97 997.8 15.9 W 15.9 0.0 0.6
09:28 6.5 6.1 97 997.7 15.9 NW 15.9 0.0 0.6
09:27 6.5 6.1 97 997.6 12.1 SW 15.9 0.0 0.6
09:26 6.5 6.1 97 997.7 13.6 SW 15.9 0.0 0.6
09:25 6.5 6.1 97 997.6 9.8 WNW 15.9 0.0 0.6
09:24 6.4 6.0 97 997.6 12.1 SW 15.9 0.0 0.6
09:23 6.4 6.0 97 997.5 13.0 SW 15.9 0.0 0.6
09:22 6.4 6.0 97 997.5 12.1 SW 15.9 0.0 0.6
09:21 6.4 6.0 97 997.4 12.1 SW 15.9 0.0 0.6
09:20 6.4 6.0 97 997.4 15.2 SW 15.9 0.0 0.6
09:19 6.3 5.9 97 997.6 14.5 S 15.9 0.0 0.6
09:18 6.3 6.0 98 997.5 11.4 SW 15.9 0.0 0.6
09:17 6.3 6.0 98 997.4 13.0 SW 15.9 0.0 0.6
09:16 6.3 6.0 98 997.6 12.1 SW 15.9 0.0 0.6
09:15 6.3 6.0 98 997.5 9.8 SW 15.9 0.0 0.6
09:14 6.3 6.0 98 997.5 15.9 SW 15.9 0.0 0.6
09:13 6.2 5.9 98 997.4 13.0 SW 15.9 0.0 0.6
09:12 6.2 5.9 98 997.4 13.0 W 15.9 0.0 0.6
09:10 6.2 5.9 98 997.5 15.2 W 15.9 0.0 0.6
09:09 6.1 5.8 98 997.5 12.1 SW 15.9 0.0 0.6
09:08 6.1 5.8 98 997.5 11.4 SW 15.9 0.0 0.6
09:07 6.0 5.7 98 997.5 13.0 S 15.9 0.0 0.6
09:06 6.0 5.7 98 997.6 13.6 S 15.9 0.0 0.6
09:05 5.9 5.6 98 997.6 13.6 SW 13.6 0.0 0.6
09:04 5.9 5.6 98 997.4 12.1 SW 13.0 0.0 0.6
09:03 5.7 5.6 99 997.5 8.3 SW 13.0 0.0 0.6
09:02 5.7 5.6 99 997.4 8.3 SW 13.0 0.0 0.6
09:01 5.7 5.6 99 997.3 8.3 SW 13.0 0.0 0.6
09:00 5.7 5.6 99 997.3 8.3 SW 15.9 0.0 0.6
08:59 5.7 5.6 99 997.2 8.3 SW 15.9 0.0 0.6
08:58 5.7 5.6 99 997.4 9.8 SW 15.9 0.0 0.6
08:57 5.7 5.6 99 997.2 13.0 SW 15.9 0.0 0.6
08:56 5.6 5.5 99 997.3 12.1 S 15.9 0.0 0.6
08:55 5.6 5.5 99 997.3 13.0 S 15.9 0.0 0.6
08:54 5.6 5.5 99 997.6 12.1 SW 15.9 0.0 0.6
08:53 5.5 5.4 99 997.2 9.8 SW 15.9 0.0 0.6
08:52 5.5 5.4 99 997.3 11.4 S 15.9 0.0 0.6
08:51 5.5 5.4 99 997.3 15.9 S 15.9 0.0 0.6
08:50 5.4 5.3 99 997.2 9.2 NW 15.2 0.0 0.6
08:48 5.4 5.3 99 997.3 15.2 SW 15.2 0.0 0.6
08:47 5.4 5.3 99 997.2 9.8 W 12.1 0.0 0.6
08:46 5.3 5.2 99 997.3 9.2 SW 12.1 0.0 0.6
08:45 5.3 5.2 99 997.2 12.1 SW 12.1 0.0 0.6
08:44 5.3 5.2 99 997.2 9.2 SW 12.1 0.0 0.6
08:43 5.2 5.1 99 997.2 10.7 SW 12.1 0.0 0.6
08:42 5.2 5.1 99 997.2 12.1 SW 12.1 0.0 0.6
08:41 5.2 5.1 99 997.2 9.2 WNW 11.4 0.0 0.6
08:40 5.2 5.1 99 997.2 7.6 SW 11.4 0.0 0.6
08:39 5.2 5.1 99 997.2 7.6 W 11.4 0.0 0.6
08:38 5.2 5.1 99 997.2 9.2 SW 11.4 0.0 0.6
08:37 5.1 5.0 99 997.2 10.7 SW 11.4 0.0 0.6
08:36 5.1 5.0 99 997.2 11.4 SW 13.0 0.0 0.6
08:35 5.0 4.9 99 997.2 7.6 W 13.0 0.0 0.6
08:34 5.0 4.9 99 997.2 9.8 SW 13.0 0.0 0.6
08:33 5.0 4.9 99 997.2 11.4 W 13.0 0.0 0.6
08:32 5.0 4.9 99 997.1 8.3 SW 13.0 0.0 0.6
08:31 4.9 4.8 99 997.1 6.0 SW 13.0 0.0 0.6
08:30 4.9 4.8 99 997.2 6.9 SW 13.0 0.0 0.6
08:29 4.9 4.8 99 997.0 10.7 W 13.0 0.0 0.6
08:28 4.8 4.7 99 997.1 11.4 W 13.0 0.0 0.6
08:27 4.8 4.7 99 997.0 13.0 SW 13.0 0.0 0.6
08:26 4.8 4.7 99 997.1 10.7 SW 10.7 0.0 0.6
08:25 4.8 4.7 99 997.1 9.2 W 9.8 0.0 0.6
08:24 4.8 4.7 99 997.1 9.8 S 9.8 0.0 0.6
08:23 4.7 4.6 99 997.1 9.2 SW 9.8 0.0 0.6
08:22 4.7 4.6 99 997.0 7.6 W 11.4 0.0 0.6
08:21 4.7 4.6 99 997.1 5.4 SW 11.4 0.0 0.6
08:20 4.7 4.6 99 997.1 6.9 SW 11.4 0.0 0.6
08:19 4.7 4.6 99 997.1 7.6 SW 11.4 0.0 0.6
08:17 4.7 4.6 99 997.0 8.3 SW 11.4 0.0 0.6
08:16 4.7 4.6 99 997.0 6.0 SW 11.4 0.0 0.6
08:15 4.6 4.5 99 997.0 9.8 SW 11.4 0.0 0.6
08:14 4.6 4.5 99 997.0 9.2 SW 11.4 0.0 0.6
08:13 4.6 4.5 99 997.0 11.4 SW 11.4 0.0 0.6
08:11 4.6 4.5 99 997.0 9.8 SW 11.4 0.0 0.6
08:10 4.6 4.5 99 996.9 9.8 SW 11.4 0.0 0.6
08:08 4.5 4.4 99 996.9 9.2 W 11.4 0.0 0.6
08:07 4.5 4.4 99 996.9 10.7 W 11.4 0.0 0.6
08:06 4.5 4.4 99 996.8 11.4 W 11.4 0.0 0.6
08:05 4.4 4.3 99 996.7 11.4 SW 11.4 0.0 0.6
08:04 4.4 4.3 99 996.9 9.8 SW 11.4 0.0 0.6
08:03 4.4 4.3 99 996.9 7.6 SW 11.4 0.0 0.6
08:02 4.4 4.3 99 996.7 9.2 SW 11.4 0.0 0.6
08:01 4.3 4.2 99 996.7 11.4 SW 11.4 0.0 0.6
08:00 4.3 4.2 99 996.8 11.4 SW 11.4 0.0 0.6
07:59 4.3 4.2 99 996.8 10.7 SW 11.4 0.0 0.6
07:58 4.3 4.2 99 996.7 10.7 SW 11.4 0.0 0.6
07:57 4.2 4.1 99 996.8 9.2 S 11.4 0.0 0.6
07:56 4.2 4.1 99 996.6 11.4 SW 11.4 0.0 0.6
07:55 4.1 4.0 99 996.6 10.7 SW 10.7 0.0 0.6
07:54 4.1 4.0 99 996.6 10.7 SW 10.7 0.0 0.6
07:53 4.1 4.0 99 996.7 9.2 W 10.7 0.0 0.6
07:52 4.0 3.9 99 996.6 9.2 SW 10.7 0.0 0.6
07:50 4.0 3.9 99 996.6 10.7 SW 10.7 0.0 0.6
07:49 4.0 3.9 99 996.7 9.8 SW 9.8 0.0 0.6
07:48 3.9 3.8 99 996.5 9.2 SW 9.2 0.0 0.6
07:47 3.9 3.8 99 996.7 8.3 SW 9.8 0.0 0.6
07:46 3.9 3.8 99 996.4 8.3 SW 9.8 0.0 0.6
07:45 3.8 3.7 99 996.5 7.6 NW 9.8 0.0 0.6
07:44 3.8 3.7 99 996.5 7.6 SW 9.8 0.0 0.6
07:43 3.8 3.7 99 996.6 7.6 W 10.7 0.0 0.6
07:42 3.7 3.6 99 996.5 6.9 SW 10.7 0.0 0.6
07:40 3.7 3.6 99 996.6 8.3 SW 10.7 0.0 0.6
07:39 3.6 3.5 99 996.4 8.3 W 10.7 0.0 0.6
07:38 3.6 3.5 99 996.4 9.8 SW 10.7 0.0 0.6
07:37 3.6 3.5 99 996.3 6.9 SW 10.7 0.0 0.6
07:36 3.6 3.5 99 996.4 7.6 S 10.7 0.0 0.6
07:35 3.6 3.5 99 996.3 9.8 SW 10.7 0.0 0.6
07:34 3.6 3.5 99 996.4 10.7 SW 10.7 0.0 0.6
07:33 3.5 3.4 99 996.5 9.8 W 9.8 0.0 0.6
07:32 3.5 3.4 99 996.4 7.6 SW 8.3 0.0 0.6
07:31 3.5 3.4 99 996.5 8.3 SW 8.3 0.0 0.6
07:30 3.5 3.4 99 996.5 7.6 S 10.7 0.0 0.6
07:29 3.5 3.4 99 996.4 7.6 SW 10.7 0.0 0.6
07:28 3.5 3.4 99 996.6 6.0 W 10.7 0.0 0.6
07:27 3.5 3.4 99 996.3 6.9 W 10.7 0.0 0.6
07:26 3.5 3.4 99 996.4 5.4 W 10.7 0.0 0.6
07:25 3.5 3.4 99 996.4 7.6 SW 10.7 0.0 0.6
07:24 3.5 3.4 99 996.2 6.0 SW 10.7 0.0 0.6
07:22 3.5 3.4 99 996.3 7.6 SW 10.7 0.0 0.6
07:21 3.5 3.4 99 996.3 8.3 W 10.7 0.0 0.6
07:20 3.5 3.4 99 996.2 10.7 SW 10.7 0.0 0.6
07:19 3.4 3.3 99 996.4 7.6 SW 10.7 0.0 0.6
07:18 3.4 3.3 99 996.3 6.9 W 11.4 0.0 0.6
07:17 3.4 3.3 99 996.3 5.4 SW 11.4 0.0 0.6
07:16 3.4 3.3 99 996.2 6.0 SW 11.4 0.0 0.6
07:15 3.4 3.3 99 996.3 9.2 SW 11.4 0.0 0.6
07:14 3.4 3.3 99 996.2 7.6 SW 11.4 0.0 0.6
07:13 3.4 3.3 99 996.2 6.9 SW 11.4 0.0 0.6
07:12 3.4 3.3 99 996.2 8.3 W 11.4 0.0 0.6
07:11 3.3 3.2 99 996.3 9.8 SW 11.4 0.0 0.6
07:10 3.3 3.2 99 996.2 6.9 SW 11.4 0.0 0.6
07:09 3.3 3.2 99 996.1 11.4 SW 11.4 0.0 0.6
07:08 3.3 3.2 99 996.2 5.4 SW 6.0 0.0 0.6
07:07 3.3 3.2 99 996.2 6.0 SW 6.0 0.0 0.6
07:06 3.3 3.2 99 996.1 6.0 SW 6.0 0.0 0.6
07:05 3.2 3.1 99 996.1 5.4 SW 6.0 0.0 0.6
07:04 3.2 3.1 99 996.0 5.4 SW 6.0 0.0 0.6
07:03 3.2 3.1 99 996.0 5.4 SW 6.0 0.0 0.6
07:02 3.2 3.1 99 996.0 5.4 SW 6.9 0.0 0.6
07:01 3.2 3.1 99 996.0 5.4 SW 9.2 0.0 0.6
07:00 3.2 3.1 99 995.9 5.4 SW 9.2 0.0 0.6
06:59 3.2 3.1 99 995.9 5.4 W 9.2 0.0 0.6
06:58 3.2 3.1 99 995.9 3.1 W 9.2 0.0 0.6
06:57 3.2 3.1 99 995.9 5.4 W 9.2 0.0 0.6
06:56 3.2 3.1 99 995.9 4.5 SW 9.2 0.0 0.6
06:55 3.2 3.1 99 995.9 6.0 SW 9.2 0.0 0.6
06:54 3.2 3.1 99 995.9 4.5 W 9.2 0.0 0.6
06:53 3.2 3.1 99 995.9 6.9 SW 9.2 0.0 0.6
06:52 3.2 3.1 99 995.9 6.9 SW 9.2 0.0 0.6
06:51 3.2 3.1 99 996.0 9.2 SW 9.2 0.0 0.6
06:50 3.2 3.1 99 995.9 6.9 SW 7.6 0.0 0.6
06:49 3.2 3.1 99 995.7 6.9 W 7.6 0.0 0.6
06:48 3.2 3.1 99 995.7 6.0 W 7.6 0.0 0.6
06:47 3.2 3.1 99 995.8 5.4 SW 7.6 0.0 0.6
06:46 3.2 3.1 99 996.0 6.0 SW 7.6 0.0 0.6
06:45 3.2 3.1 99 995.8 6.0 SW 7.6 0.0 0.6
06:44 3.2 3.1 99 995.8 7.6 SW 7.6 0.0 0.6
06:43 3.2 3.1 99 995.7 6.9 SW 6.9 0.0 0.6
06:42 3.2 3.1 99 995.7 5.4 SW 6.9 0.0 0.6
06:41 3.2 3.1 99 995.7 5.4 W 6.9 0.0 0.6
06:40 3.3 3.2 99 995.7 4.5 W 6.9 0.0 0.6
06:38 3.2 3.1 99 995.7 4.5 SW 8.3 0.0 0.6
06:37 3.3 3.2 99 995.7 6.0 W 8.3 0.0 0.6
06:36 3.3 3.2 99 995.5 5.4 W 9.2 0.0 0.6
06:35 3.3 3.2 99 995.7 6.9 W 9.2 0.0 0.6
06:33 3.3 3.2 99 995.6 5.4 SW 9.2 0.0 0.6
06:32 3.3 3.2 99 995.7 6.9 SW 9.2 0.0 0.6
06:30 3.3 3.2 99 995.5 6.0 SW 9.2 0.0 0.6
06:29 3.3 3.2 99 995.5 6.9 SW 9.2 0.0 0.6
06:28 3.3 3.2 99 995.6 8.3 SW 9.2 0.0 0.6
06:27 3.3 3.2 99 995.5 6.9 SW 11.4 0.0 0.6
06:26 3.3 3.2 99 995.6 9.2 W 11.4 0.0 0.6
06:25 3.3 3.2 99 995.4 6.9 SW 11.4 0.0 0.6
06:24 3.3 3.2 99 995.4 7.6 SW 11.4 0.0 0.6
06:22 3.3 3.2 99 995.5 8.3 SW 12.1 0.0 0.6
06:21 3.3 3.2 99 995.2 7.6 W 12.1 0.0 0.6
06:20 3.3 3.2 99 995.6 6.9 SW 12.1 0.0 0.6
06:19 3.3 3.2 99 995.3 7.6 SW 12.1 0.0 0.6
06:18 3.3 3.2 99 995.3 11.4 SW 12.1 0.0 0.6
06:17 3.3 3.2 99 995.4 8.3 SW 12.1 0.0 0.6
06:16 3.3 3.2 99 995.3 7.6 SW 12.1 0.0 0.6
06:15 3.3 3.2 99 995.4 7.6 SW 12.1 0.0 0.6
06:14 3.3 3.2 99 995.3 6.0 W 12.1 0.0 0.6
06:13 3.4 3.3 99 995.2 12.1 W 12.1 0.0 0.6
06:11 3.4 3.3 99 995.2 9.8 SW 12.1 0.0 0.6
06:10 3.4 3.3 99 995.3 10.7 W 12.1 0.0 0.6
06:09 3.4 3.3 99 995.2 11.4 N 12.1 0.0 0.6
06:07 3.4 3.3 99 995.2 8.3 SW 12.1 0.0 0.6
06:06 3.4 3.3 99 995.2 9.2 SW 12.1 0.0 0.6
06:05 3.4 3.3 99 995.1 12.1 N 12.1 0.0 0.6
06:04 3.4 3.3 99 995.2 12.1 N 12.1 0.0 0.6
06:03 3.4 3.3 99 995.2 12.1 N 12.1 0.0 0.6
06:02 3.4 3.3 99 995.2 12.1 N 12.1 0.0 0.6
06:01 3.4 3.3 99 995.1 12.1 N 12.1 0.0 0.6
06:00 3.4 3.3 99 995.1 12.1 N 12.1 0.0 0.6
05:59 3.4 3.3 99 995.3 12.1 N 12.1 0.0 0.6
05:58 3.5 3.4 99 995.1 10.7 SW 11.4 0.0 0.6
05:57 3.5 3.4 99 995.2 10.7 SW 11.4 0.0 0.6
05:56 3.5 3.4 99 995.1 9.2 N 12.1 0.0 0.6
05:55 3.5 3.4 99 995.1 11.4 N 12.1 0.0 0.6
05:54 3.5 3.4 99 995.2 9.2 N 12.1 0.0 0.6
05:53 3.5 3.4 99 995.0 8.3 N 12.1 0.0 0.6
05:52 3.5 3.4 99 995.2 9.2 SW 13.0 0.0 0.6
05:51 3.5 3.4 99 995.2 10.7 SW 13.0 0.0 0.6
05:49 3.5 3.4 99 995.1 9.8 W 13.0 0.0 0.6
05:48 3.5 3.4 99 995.0 9.8 SW 13.0 0.0 0.6
05:47 3.5 3.4 99 994.9 11.4 SW 13.0 0.0 0.6
05:46 3.5 3.4 99 994.9 12.1 SW 13.0 0.0 0.6
05:45 3.5 3.4 99 994.9 9.2 N 13.0 0.0 0.6
05:44 3.5 3.4 99 994.9 9.8 N 13.0 0.0 0.6
05:43 3.5 3.4 99 994.8 10.7 SW 13.0 0.0 0.6
05:42 3.6 3.5 99 995.0 13.0 S 13.0 0.0 0.6
05:41 3.6 3.5 99 994.8 9.2 W 11.4 0.0 0.6
05:40 3.6 3.5 99 994.8 8.3 SW 11.4 0.0 0.6
05:39 3.6 3.5 99 994.7 8.3 WSW 11.4 0.0 0.6
05:38 3.6 3.5 99 994.8 9.2 SW 11.4 0.0 0.6
05:37 3.6 3.5 99 994.7 9.8 SW 11.4 0.0 0.6
05:36 3.6 3.5 99 994.8 11.4 SW 11.4 0.0 0.6
05:35 3.6 3.5 99 994.8 10.7 W 11.4 0.0 0.6
05:34 3.7 3.6 99 994.8 9.8 SW 11.4 0.0 0.6
05:33 3.6 3.5 99 994.8 9.2 SW 11.4 0.0 0.6
05:32 3.7 3.6 99 994.6 9.2 N 13.0 0.0 0.6
05:30 3.7 3.6 99 994.7 9.8 SW 13.0 0.0 0.6
05:29 3.7 3.6 99 994.7 10.7 SW 13.0 0.0 0.6
05:28 3.7 3.6 99 994.7 6.9 SW 13.0 0.0 0.6
05:27 3.7 3.6 99 994.7 11.4 SW 13.0 0.0 0.6
05:26 3.7 3.6 99 994.7 9.2 N 13.0 0.0 0.6
05:25 3.7 3.6 99 994.7 8.3 SW 13.0 0.0 0.6
05:24 3.8 3.7 99 994.6 6.9 SW 13.0 0.0 0.6
05:23 3.7 3.6 99 994.6 8.3 SW 13.0 0.0 0.6
05:22 3.8 3.7 99 994.6 13.0 N 13.0 0.0 0.6
05:21 3.8 3.7 99 994.4 11.4 N 12.1 0.0 0.6
05:20 3.8 3.7 99 994.6 11.4 S 12.1 0.0 0.6
05:19 3.8 3.7 99 994.6 8.3 SW 12.1 0.0 0.6
05:18 3.8 3.7 99 994.6 7.6 SW 12.1 0.0 0.6
05:17 3.8 3.7 99 994.5 12.1 SW 12.1 0.0 0.6
05:16 3.8 3.7 99 994.5 7.6 S 10.7 0.0 0.6
05:15 3.8 3.7 99 994.5 9.8 SW 10.7 0.0 0.6
05:14 3.9 3.8 99 994.5 6.9 SW 10.7 0.0 0.6
05:13 3.9 3.8 99 994.5 9.2 S 10.7 0.0 0.6
05:11 3.8 3.7 99 994.4 9.2 SW 10.7 0.0 0.6
05:10 3.9 3.8 99 994.5 9.2 SW 10.7 0.0 0.6
05:09 3.9 3.8 99 994.6 10.7 SW 10.7 0.0 0.6
05:08 3.9 3.8 99 994.5 10.7 SW 13.6 0.0 0.6
05:07 3.8 3.7 99 994.5 7.6 W 13.6 0.0 0.6
05:06 3.8 3.7 99 994.4 7.6 N 13.6 0.0 0.6
05:05 3.6 3.5 99 994.5 10.7 N 13.6 0.0 0.6
05:03 3.6 3.5 99 994.4 10.7 N 13.6 0.0 0.6
05:02 3.6 3.5 99 994.4 10.7 N 13.6 0.0 0.6
05:01 3.6 3.5 99 994.4 10.7 N 13.6 0.0 0.6
05:00 3.6 3.5 99 994.2 10.7 N 13.6 0.0 0.6
04:58 3.6 3.5 99 994.2 13.6 N 13.6 0.0 0.6
04:57 3.6 3.5 99 994.2 9.8 N 13.0 0.0 0.6
04:56 3.5 3.4 99 994.2 9.8 SW 13.0 0.0 0.6
04:55 3.5 3.4 99 994.2 9.8 SW 13.0 0.0 0.6
04:54 3.5 3.4 99 994.1 8.3 N 13.0 0.0 0.6
04:53 3.5 3.4 99 994.2 9.2 S 13.0 0.0 0.6
04:52 3.5 3.4 99 994.2 12.1 S 13.0 0.0 0.6
04:51 3.5 3.4 99 994.2 13.0 S 13.0 0.0 0.6
04:50 3.5 3.4 99 994.2 13.0 SW 13.0 0.0 0.6
04:49 3.5 3.4 99 994.2 9.2 S 10.7 0.0 0.6
04:48 3.5 3.4 99 994.2 9.8 SW 10.7 0.0 0.6
04:47 3.5 3.4 99 994.1 9.8 SW 10.7 0.0 0.6
04:46 3.5 3.4 99 994.3 8.3 SW 10.7 0.0 0.6
04:45 3.5 3.4 99 994.3 10.7 S 10.7 0.0 0.6
04:44 3.5 3.4 99 994.3 9.2 SW 9.2 0.0 0.6
04:43 3.5 3.4 99 994.2 9.2 SW 9.2 0.0 0.6
04:42 3.5 3.4 99 994.2 6.9 SW 9.2 0.0 0.6
04:40 3.5 3.4 99 994.2 6.9 SW 9.2 0.0 0.6
04:39 3.5 3.4 99 994.2 6.0 N 9.2 0.0 0.6
04:38 3.5 3.4 99 994.2 6.0 SW 9.2 0.0 0.6
04:37 3.5 3.4 99 994.2 9.2 SW 9.8 0.0 0.6
04:36 3.5 3.4 99 994.1 9.2 SW 9.8 0.0 0.6
04:35 3.5 3.4 99 994.2 8.3 NW 10.7 0.0 0.6
04:34 3.5 3.4 99 994.2 8.3 SW 12.1 0.0 0.6
04:32 3.5 3.4 99 994.1 6.9 SW 12.1 0.0 0.6
04:31 3.5 3.4 99 994.2 6.0 SW 12.1 0.0 0.6
04:30 3.5 3.4 99 994.2 7.6 SW 12.1 0.0 0.6
04:29 3.5 3.4 99 994.2 7.6 S 12.1 0.0 0.6
04:28 3.5 3.4 99 994.2 8.3 SW 13.6 0.0 0.6
04:27 3.5 3.4 99 994.2 9.8 SW 13.6 0.0 0.6
04:26 3.5 3.4 99 994.1 9.2 SW 13.6 0.0 0.6
04:25 3.5 3.4 99 994.2 10.7 S 13.6 0.0 0.6
04:24 3.5 3.4 99 994.1 10.7 SW 13.6 0.0 0.6
04:23 3.5 3.4 99 994.1 10.7 SW 13.6 0.0 0.6
04:22 3.5 3.4 99 994.0 9.2 SW 13.6 0.0 0.6
04:21 3.5 3.4 99 994.1 9.2 SW 13.6 0.0 0.6
04:20 3.5 3.4 99 994.1 10.7 W 13.6 0.0 0.6
04:19 3.4 3.3 99 994.2 13.6 SW 13.6 0.0 0.6
04:18 3.4 3.3 99 994.1 12.1 W 12.1 0.0 0.6
04:17 3.4 3.3 99 994.0 11.4 SW 11.4 0.0 0.6
04:16 3.4 3.3 99 994.2 10.7 SW 11.4 0.0 0.6
04:14 3.4 3.3 99 994.1 11.4 SW 11.4 0.0 0.6
04:13 3.4 3.3 99 994.1 10.7 SW 10.7 0.0 0.6
04:12 3.4 3.3 99 993.8 9.8 SW 10.7 0.0 0.6
04:11 3.4 3.3 99 994.0 6.9 SW 10.7 0.0 0.6
04:10 3.4 3.3 99 993.9 10.7 SW 10.7 0.0 0.6
04:09 3.4 3.3 99 994.0 8.3 SW 9.8 0.0 0.6
04:08 3.4 3.3 99 994.1 9.2 SW 11.4 0.0 0.6
04:06 3.4 3.3 99 993.9 9.2 SW 11.4 0.0 0.6
04:05 3.4 3.3 99 993.9 7.6 SW 13.0 0.0 0.6
04:04 3.4 3.3 99 994.0 9.8 SW 13.0 0.0 0.6
04:03 3.4 3.3 99 993.9 9.8 SW 13.0 0.0 0.6
04:02 3.4 3.3 99 994.0 9.8 SW 13.0 0.0 0.6
04:01 3.4 3.3 99 994.1 9.8 SW 13.0 0.0 0.6
04:00 3.4 3.3 99 993.9 9.8 SW 13.0 0.0 0.6
03:59 3.4 3.3 99 993.9 9.8 SW 13.0 0.0 0.6
03:58 3.4 3.3 99 993.9 11.4 SW 13.6 0.0 0.6
03:57 3.4 3.3 99 994.1 8.3 SW 13.6 0.0 0.6
03:56 3.4 3.3 99 993.9 13.0 SW 13.6 0.0 0.6
03:55 3.4 3.3 99 994.0 9.2 SW 13.6 0.0 0.6
03:54 3.4 3.3 99 994.0 9.2 SW 13.6 0.0 0.6
03:53 3.4 3.3 99 994.0 7.6 SW 13.6 0.0 0.6
03:52 3.4 3.3 99 994.1 9.8 W 13.6 0.0 0.6
03:51 3.4 3.3 99 994.0 8.3 W 13.6 0.0 0.6
03:50 3.4 3.3 99 993.8 9.8 SW 13.6 0.0 0.6
03:48 3.5 3.4 99 993.9 6.9 SW 13.6 0.0 0.6
03:47 3.5 3.4 99 993.9 10.7 SW 13.6 0.0 0.6
03:46 3.5 3.4 99 993.9 9.2 S 13.6 0.0 0.6
03:45 3.5 3.4 99 994.0 7.6 SW 13.6 0.0 0.6
03:44 3.5 3.4 99 993.8 11.4 SW 13.6 0.0 0.6
03:43 3.5 3.4 99 993.8 13.0 SW 13.6 0.0 0.6
03:42 3.5 3.4 99 993.7 13.6 SW 13.6 0.0 0.6
03:41 3.5 3.4 99 993.8 9.2 SW 13.0 0.0 0.6
03:40 3.5 3.4 99 993.9 13.0 SW 16.8 0.0 0.6
03:39 3.5 3.4 99 993.9 10.7 SW 16.8 0.0 0.6
03:38 3.5 3.4 99 993.8 12.1 SW 16.8 0.0 0.6
03:37 3.6 3.5 99 993.9 10.7 SW 16.8 0.0 0.6
03:36 3.6 3.5 99 994.0 12.1 SW 16.8 0.0 0.6
03:35 3.6 3.5 99 993.9 9.8 SW 16.8 0.0 0.6
03:34 3.7 3.6 99 993.8 13.0 SW 16.8 0.0 0.6
03:33 3.7 3.6 99 993.8 13.0 SW 16.8 0.0 0.6
03:32 3.7 3.6 99 993.9 13.0 S 19.0 0.0 0.6
03:31 3.7 3.6 99 993.9 10.7 SW 19.0 0.0 0.6
03:30 3.8 3.7 99 993.8 16.8 SW 19.0 0.0 0.6
03:29 3.9 3.8 99 993.7 12.1 SW 19.0 0.0 0.6
03:28 3.9 3.8 99 993.9 15.2 W 19.0 0.0 0.6
03:26 3.9 3.8 99 993.8 14.5 SW 19.0 1.5 0.6
03:25 4.0 3.9 99 994.0 14.5 SW 19.0 2.3 0.6
03:24 4.0 3.9 99 993.9 14.5 SW 19.0 2.3 0.6
03:23 4.0 3.9 99 994.1 14.5 SW 19.0 2.3 0.6
03:22 4.0 3.9 99 994.2 19.0 SW 19.0 1.5 0.6
03:21 4.0 3.9 99 994.3 17.4 SW 19.0 0.8 0.5
03:20 4.0 3.9 99 994.4 19.0 SW 19.0 0.0 0.4
03:19 4.0 3.9 99 994.0 9.8 W 15.9 0.0 0.4
03:18 4.0 3.9 99 993.8 9.8 SW 15.9 0.0 0.4
03:17 4.0 3.9 99 993.7 11.4 SW 15.9 0.0 0.4
03:16 4.0 3.9 99 993.8 10.7 SW 15.9 0.0 0.4
03:15 3.9 3.8 99 993.7 15.9 SW 15.9 0.0 0.4
03:14 3.9 3.8 99 993.7 11.4 SW 15.9 0.0 0.4
03:13 3.9 3.8 99 993.7 10.7 S 15.9 0.0 0.4
03:12 3.9 3.8 99 993.6 13.0 SW 15.9 0.0 0.4
03:11 3.9 3.8 99 993.6 13.0 SW 15.9 0.0 0.4
03:10 3.9 3.8 99 993.5 15.2 SW 15.9 0.0 0.4
03:09 3.9 3.8 99 993.6 13.6 W 15.9 0.0 0.4
03:07 3.9 3.8 99 993.7 9.8 SW 15.9 0.0 0.4
03:06 3.9 3.8 99 993.7 10.7 SW 15.9 0.0 0.4
03:05 3.9 3.8 99 993.7 12.1 SW 15.9 0.0 0.4
03:04 3.9 3.8 99 993.6 15.9 SW 15.9 0.0 0.4
03:03 3.9 3.8 99 993.6 15.9 SW 15.9 0.0 0.4
03:02 3.9 3.8 99 993.6 15.9 SW 15.9 0.0 0.4
03:01 3.9 3.8 99 993.6 15.9 SW 15.9 0.0 0.4
03:00 3.9 3.8 99 993.6 15.9 SW 15.9 0.0 0.4
02:59 3.9 3.8 99 993.6 15.9 SW 15.9 0.0 0.4
02:58 3.9 3.8 99 993.6 11.4 W 15.9 0.0 0.4
02:57 3.9 3.8 99 993.5 12.1 N 15.9 0.0 0.4
02:56 3.9 3.8 99 993.7 14.5 N 15.9 0.0 0.4
02:55 3.9 3.8 99 993.5 8.3 N 15.9 0.0 0.4
02:54 3.9 3.8 99 993.7 11.4 N 15.9 0.0 0.4
02:53 3.9 3.8 99 993.7 9.8 N 15.9 0.0 0.4
02:52 3.9 3.8 99 993.5 14.5 N 15.9 0.0 0.4
02:51 3.9 3.8 99 993.5 13.0 N 15.9 0.0 0.4
02:50 3.9 3.8 99 993.7 10.7 NNW 13.6 0.0 0.4
02:48 3.9 3.8 99 993.7 11.4 N 13.6 0.0 0.4
02:47 3.9 3.8 99 993.5 11.4 N 13.6 0.0 0.4
02:46 4.0 3.9 99 993.7 11.4 N 13.6 0.0 0.4
02:45 4.0 3.9 99 993.6 8.3 N 13.6 0.0 0.4
02:44 4.0 3.9 99 993.7 12.1 N 13.6 0.0 0.4
02:43 4.0 3.9 99 993.5 10.7 N 12.1 0.0 0.4
02:42 4.0 3.9 99 993.5 10.7 N 12.1 0.0 0.4
02:41 4.0 3.9 99 993.4 11.4 N 13.6 0.0 0.4
02:40 4.0 3.9 99 993.5 8.3 N 13.6 0.0 0.4
02:39 4.0 3.9 99 993.5 7.6 N 13.6 0.0 0.4
02:38 4.0 3.9 99 993.5 12.1 S 13.6 0.0 0.4
02:37 4.1 4.0 99 993.6 9.2 S 13.6 0.0 0.4
02:36 4.1 4.0 99 993.7 11.4 N 13.6 0.0 0.4
02:35 4.1 4.0 99 993.6 9.8 N 13.6 0.0 0.4
02:34 4.1 4.0 99 993.5 12.1 N 13.6 0.0 0.4
02:33 4.1 4.0 99 993.5 10.7 N 13.6 0.0 0.4
02:32 4.1 4.0 99 993.5 13.6 N 13.6 0.0 0.4
02:30 4.1 4.0 99 993.4 9.2 N 13.6 0.0 0.4
02:29 4.1 4.0 99 993.5 9.8 N 13.6 0.0 0.4
02:28 4.1 4.0 99 993.5 9.8 N 13.6 0.0 0.4
02:27 4.1 4.0 99 993.6 11.4 N 13.6 0.0 0.4
02:26 4.1 4.0 99 993.6 10.7 N 13.6 0.0 0.4
02:25 4.1 4.0 99 993.5 12.1 N 13.6 0.0 0.4
02:24 4.2 4.1 99 993.4 13.6 N 13.6 0.0 0.4
02:23 4.2 4.1 99 993.6 9.2 N 13.6 0.0 0.4
02:22 4.2 4.1 99 993.5 9.8 N 13.6 0.0 0.4
02:21 4.2 4.1 99 993.6 10.7 W 13.6 0.0 0.4
02:20 4.2 4.1 99 993.5 7.6 W 13.6 0.0 0.4
02:19 4.2 4.1 99 993.3 11.4 W 11.4 0.0 0.4
02:18 4.2 4.1 99 993.5 11.4 W 11.4 0.0 0.4
02:17 4.2 4.1 99 993.6 9.2 W 11.4 0.0 0.4
02:16 4.2 4.1 99 993.5 9.8 N 13.6 0.0 0.4
02:15 4.2 4.1 99 993.5 10.7 N 16.8 0.0 0.4
02:14 4.2 4.1 99 993.5 8.3 S 16.8 0.0 0.4
02:13 4.2 4.1 99 993.5 11.4 W 16.8 0.0 0.4
02:12 4.2 4.1 99 993.4 9.8 W 16.8 0.0 0.4
02:11 4.2 4.1 99 993.5 7.6 W 16.8 0.0 0.4
02:09 4.2 4.1 99 993.7 9.2 N 16.8 0.0 0.4
02:08 4.2 4.1 99 993.6 11.4 N 16.8 0.0 0.4
02:07 4.1 4.0 99 993.5 10.7 N 16.8 0.0 0.4
02:06 4.1 4.0 99 993.5 12.1 N 16.8 0.0 0.4
02:05 4.1 4.0 99 993.5 16.8 W 16.8 0.0 0.4
02:04 4.1 4.0 99 993.6 15.9 W 15.9 0.0 0.4
02:03 4.0 3.9 99 993.5 15.9 W 15.9 0.0 0.4
02:02 4.0 3.9 99 993.7 11.4 WSW 13.6 0.0 0.4
02:01 4.0 3.9 99 993.4 9.8 WSW 13.6 0.0 0.4
02:00 4.0 3.9 99 993.2 9.8 WSW 13.6 0.0 0.4
01:59 4.0 3.9 99 993.4 9.8 WSW 13.6 0.0 0.4
01:58 4.1 4.0 99 993.2 11.4 WSW 13.6 0.0 0.4
01:56 4.1 4.0 99 993.3 9.2 W 13.6 0.0 0.4
01:55 4.1 4.0 99 993.3 12.1 WSW 13.6 0.0 0.4
01:54 4.1 4.0 99 993.2 10.7 WSW 13.6 0.0 0.4
01:53 4.1 4.0 99 993.2 11.4 WSW 13.6 0.0 0.4
01:52 4.2 4.1 99 993.3 9.8 WSW 13.6 0.0 0.4
01:51 4.2 4.1 99 993.2 10.7 S 14.5 0.0 0.4
01:50 4.3 4.2 99 993.2 13.6 W 14.5 0.0 0.4
01:49 4.3 4.2 99 993.2 10.7 WSW 14.5 0.0 0.4
01:48 4.3 4.2 99 993.4 11.4 WSW 14.5 0.0 0.4
01:47 4.4 4.3 99 993.3 9.2 WSW 14.5 0.0 0.4
01:46 4.4 4.3 99 993.2 12.1 WSW 14.5 0.0 0.4
01:45 4.4 4.3 99 993.3 11.4 WSW 14.5 0.0 0.4
01:44 4.4 4.3 99 993.4 11.4 WSW 14.5 0.0 0.4
01:43 4.5 4.4 99 993.2 9.8 WSW 14.5 0.0 0.4
01:42 4.5 4.4 99 993.3 14.5 S 14.5 0.0 0.4
01:41 4.5 4.4 99 993.2 13.0 WSW 14.5 0.0 0.4
01:40 4.5 4.4 99 993.1 14.5 WSW 14.5 0.0 0.4
01:39 4.6 4.5 99 993.2 13.0 S 16.8 0.0 0.4
01:38 4.6 4.5 99 993.2 13.0 WSW 16.8 0.0 0.4
01:37 4.7 4.6 99 993.2 7.6 W 16.8 0.0 0.4
01:36 4.7 4.6 99 993.4 10.7 S 16.8 0.0 0.4
01:35 4.7 4.6 99 993.3 13.6 S 16.8 0.0 0.4
01:33 4.7 4.6 99 993.2 12.1 WSW 16.8 0.0 0.4
01:32 4.8 4.7 99 993.3 13.6 WSW 22.8 0.0 0.4
01:31 4.8 4.7 99 993.2 13.0 WSW 22.8 0.0 0.4
01:30 4.8 4.7 99 993.1 12.1 S 22.8 0.0 0.4
01:29 4.9 4.8 99 993.2 9.8 WSW 22.8 0.0 0.4
01:28 4.9 4.8 99 993.2 13.6 WSW 22.8 0.0 0.4
01:27 4.9 4.8 99 993.3 11.4 S 22.8 0.0 0.4
01:26 5.0 4.9 99 993.0 15.2 WSW 22.8 1.5 0.4
01:25 5.0 4.9 99 993.1 15.2 W 22.8 2.3 0.4
01:24 5.0 4.9 99 993.4 11.4 WSW 22.8 3.0 0.4
01:23 5.1 5.0 99 993.2 22.8 WSW 22.8 3.8 0.4
01:22 5.2 5.1 99 993.5 19.0 S 20.6 3.8 0.4
01:21 5.2 5.1 99 993.5 17.4 WSW 20.6 2.3 0.3
01:20 5.2 5.1 99 993.4 19.7 WSW 20.6 1.5 0.3
01:19 5.3 5.2 99 993.6 15.9 S 20.6 1.5 0.2
01:18 5.3 5.2 99 993.3 19.7 W 20.6 0.8 0.1
01:16 5.4 5.3 99 993.4 14.5 WSW 21.3 0.8 0.1
01:15 5.4 5.3 99 993.2 15.2 WSW 21.3 0.8 0.1
01:14 5.5 5.4 99 993.2 18.3 WSW 21.3 0.0 0.1
01:13 5.5 5.4 99 993.3 17.4 W 21.3 0.0 0.0
01:12 5.6 5.5 99 993.2 19.0 WSW 21.3 0.0 0.0
01:11 5.6 5.5 99 993.1 20.6 WSW 21.3 0.0 0.0
01:10 5.6 5.5 99 993.1 19.7 W 21.3 0.0 0.0
01:09 5.6 5.5 99 993.2 16.8 WSW 21.3 0.0 0.0
01:08 5.6 5.5 99 992.9 19.0 W 21.3 0.0 0.0
01:07 5.6 5.5 99 993.1 15.9 S 21.3 0.0 0.0
01:06 5.6 5.5 99 992.9 11.4 W 14.5 0.0 0.0
01:05 5.6 5.5 99 992.9 14.5 S 14.5 0.0 0.0
01:04 5.6 5.5 99 992.9 14.5 S 14.5 0.0 0.0
01:03 5.6 5.5 99 992.9 14.5 S 14.5 0.0 0.0
01:02 5.6 5.5 99 993.0 14.5 S 14.5 0.0 0.0
01:01 5.6 5.5 99 993.0 14.5 S 14.5 0.0 0.0
01:00 5.6 5.5 99 992.7 14.5 S 14.5 0.0 0.0
00:58 5.6 5.5 99 992.8 14.5 WSW 15.2 0.0 0.0
00:56 5.6 5.5 99 992.9 13.6 S 15.2 0.0 0.0
00:54 5.6 5.5 99 992.9 11.4 WSW 15.2 0.0 0.0
00:52 5.6 5.5 99 992.7 11.4 WSW 18.3 0.0 0.0
00:50 5.7 5.6 99 992.8 14.5 WSW 18.3 0.0 0.0
00:49 5.7 5.6 99 992.8 15.2 WSW 18.3 0.0 0.0
00:48 5.7 5.6 99 992.8 11.4 S 18.3 0.0 0.0
00:47 5.8 5.7 99 992.8 12.1 WSW 18.3 0.0 0.0
00:46 5.8 5.7 99 992.8 12.1 S 18.3 0.0 0.0
00:45 5.8 5.7 99 992.9 10.7 S 18.3 0.0 0.0
00:44 5.8 5.7 99 992.9 14.5 S 18.3 0.0 0.0
00:43 5.8 5.7 99 992.9 14.5 WSW 18.3 0.0 0.0
00:41 5.8 5.7 99 993.0 15.2 S 15.9 0.0 0.0
00:40 5.8 5.7 99 993.0 12.1 WSW 15.9 0.0 0.0
00:39 5.8 5.7 99 992.8 14.5 WSW 15.9 0.0 0.0
00:38 5.8 5.7 99 992.8 15.9 WSW 15.9 0.0 0.0
00:37 5.7 5.6 99 992.7 14.5 S 14.5 0.0 0.0
00:36 5.8 5.7 99 992.9 11.4 S 16.8 0.0 0.0
00:35 5.7 5.6 99 992.9 9.8 S 16.8 0.0 0.0
00:34 5.8 5.7 99 992.9 14.5 S 16.8 0.0 0.0
00:33 5.7 5.6 99 992.8 13.0 WSW 16.8 0.0 0.0
00:32 5.7 5.6 99 992.7 10.7 S 16.8 0.0 0.0
00:30 5.7 5.6 99 992.8 13.0 WSW 16.8 0.0 0.0
00:29 5.7 5.6 99 992.8 10.7 WSW 16.8 0.0 0.0
00:28 5.7 5.6 99 992.6 13.0 WSW 16.8 0.0 0.0
00:27 5.6 5.5 99 992.8 13.6 S 16.8 0.0 0.0
00:26 5.6 5.5 99 992.7 16.8 S 16.8 0.0 0.0
00:25 5.6 5.5 99 992.6 15.2 S 17.4 0.0 0.0
00:24 5.6 5.5 99 992.6 12.1 W 18.3 0.0 0.0
00:23 5.6 5.5 99 992.6 11.4 S 18.3 0.0 0.0
00:22 5.6 5.5 99 992.8 13.6 NW 18.3 0.0 0.0
00:21 5.5 5.4 99 992.7 9.2 S 18.3 0.0 0.0
00:20 5.5 5.4 99 992.8 12.1 S 18.3 0.0 0.0
00:18 5.5 5.4 99 992.9 11.4 S 18.3 0.0 0.0
00:17 5.5 5.4 99 992.8 15.2 S 18.3 0.0 0.0
00:15 5.4 5.3 99 992.8 18.3 S 18.3 0.0 0.0
00:14 5.4 5.3 99 992.9 9.8 S 18.3 0.0 0.0
00:12 5.3 5.2 99 992.8 13.6 S 18.3 0.0 0.0
00:11 5.3 5.2 99 992.9 18.3 S 18.3 0.0 0.0
00:09 5.3 5.2 99 992.9 13.6 S 15.2 0.0 0.0
00:07 5.2 5.1 99 992.9 12.1 S 15.2 0.0 0.0
00:06 5.2 5.1 99 992.9 14.5 WSW 14.5 0.0 0.0
00:04 5.0 4.9 99 993.0 13.6 W 14.5 0.0 0.0
00:03 5.0 4.9 99 993.0 13.6 W 14.5 0.0 0.0
00:01 5.0 4.9 99 993.0 13.6 W 14.5 0.0 0.0
00:00 5.0 4.9 99 992.9 13.6 W 14.5 0.0 0.0

UK - WEATHER STATION TOPSITES - UK World Weather Websites

This is a private weather station, never base important decisions or events on data from this weather station. Although every effort has been made to make the data as accurate as possible it does not meet MetOffice standards. It is proved as a guide of local weather conditions. We accept no liability for any loss which may arise from use of the data.

Copyright © Carnkie Weather 2009 - 2018.